GFSMW_sfc_temp_063.txt.gz
Temp
58 58 60 60 58 58 58 58 57 58 60 58 58 58 58 64 65 64 64 67 67 67 67 66 66 66 66 65 64 64 64 63 64 63 64 64 62 62 65 65 66 66 65
55 57 59 59 57 58 58 58 58 58 59 60 62 62 62 64 64 65 65 67 65 67 68 67 66 66 65 64 64 64 63 66 64 64 64 61 62 62 64 64 64 62 66
54 55 56 57 58 58 58 59 59 58 58 60 59 58 59 59 62 63 66 66 66 67 67 67 64 64 65 63 64 64 63 63 62 64 66 59 59 63 63 61 62 63 63
59 58 58 57 58 60 62 61 60 59 58 60 59 60 62 59 63 63 67 64 65 66 66 64 63 64 64 63 63 63 64 64 63 60 64 63 64 61 60 63 56 55 61
59 59 59 59 60 61 61 61 60 62 60 60 61 60 60 63 60 60 63 64 64 65 65 63 65 64 66 65 65 64 63 64 64 63 60 60 62 61 56 54 55 52 59
60 61 61 60 59 60 61 61 60 62 61 60 61 60 60 59 59 58 59 60 63 62 64 65 64 65 65 65 65 65 64 63 63 62 60 61 54 58 53 52 55 50 53
61 59 57 57 57 57 60 60 61 61 62 60 61 61 63 61 62 60 61 62 63 63 63 65 64 65 66 66 67 65 64 63 61 58 56 55 57 62 56 54 51 50 49
62 60 59 58 57 56 59 60 59 60 61 61 62 63 64 64 64 63 64 64 65 67 66 66 66 67 67 66 66 65 65 63 57 56 57 58 59 60 59 55 51 45 50
62 62 61 60 60 58 58 58 59 59 61 61 62 62 63 64 64 64 64 64 64 64 65 66 66 67 66 66 66 65 64 61 59 60 61 60 60 59 58 55 59 53 46
62 63 62 61 61 61 60 59 60 60 61 61 62 62 62 63 64 64 63 64 65 64 65 65 66 66 66 66 65 64 62 60 59 59 58 57 57 56 54 57 56 54 53
64 63 64 64 63 63 61 59 60 60 61 62 62 62 62 62 62 62 63 64 64 65 65 66 66 66 66 64 62 59 58 57 58 55 54 55 55 53 53 54 55 55 50
67 66 65 64 63 63 62 61 60 60 61 62 62 61 61 61 60 60 62 63 64 65 65 65 64 60 60 60 57 57 55 53 53 52 51 53 51 51 53 50 48 52 47
67 65 64 64 64 64 63 62 61 62 62 62 62 61 61 61 60 61 62 63 63 64 65 65 64 64 62 60 58 57 55 54 55 52 51 52 51 50 47 47 45 47 48
67 67 65 65 66 65 64 63 62 63 63 63 62 62 61 61 62 63 62 63 63 63 64 65 64 63 63 60 57 55 53 52 52 52 51 51 49 47 46 46 44 49 42
64 66 66 67 66 65 64 65 64 64 64 63 63 62 63 63 63 63 63 63 63 64 63 63 64 64 62 59 57 56 55 53 50 49 49 48 48 45 45 45 41 41 39
67 68 66 67 65 65 66 65 65 64 64 63 62 64 64 64 63 63 63 63 63 64 64 62 62 59 56 47 47 51 52 50 48 46 46 46 43 41 40 39 39 42 38
66 67 66 65 67 68 66 66 66 66 64 64 64 64 64 63 63 64 64 63 62 62 61 60 59 57 55 44 45 44 49 48 46 45 43 41 40 38 37 35 35 35 35
65 65 67 67 68 69 68 67 68 65 64 64 64 64 64 63 64 64 63 63 61 59 58 57 54 54 50 43 41 40 46 44 44 43 41 37 36 36 35 34 34 34 35
65 65 67 67 68 68 67 66 64 64 64 63 63 64 64 63 63 62 62 55 53 50 49 48 48 46 42 39 39 41 40 37 36 37 37 36 35 35 36 35 33 33 33
65 64 65 64 64 65 64 63 63 62 63 63 64 64 63 61 56 52 49 47 48 44 43 42 44 40 39 37 38 39 37 33 32 33 33 34 33 33 33 33 34 32 32
62 62 60 60 60 60 61 61 60 60 59 57 56 56 57 53 51 48 46 44 41 39 36 35 36 38 38 37 37 37 36 33 32 31 30 32 33 33 33 33 34 32 33
57 58 58 55 54 56 58 55 54 52 53 52 50 49 48 47 47 45 43 40 38 35 33 32 31 32 34 35 35 35 35 34 32 31 31 31 33 33 31 32 29 28 28
55 54 54 53 52 54 55 52 47 50 49 48 45 44 44 44 43 40 38 36 35 34 32 31 29 29 30 32 33 33 33 32 31 31 32 32 32 31 30 28 27 27 27
52 52 51 48 47 49 49 49 48 48 46 43 42 41 39 38 39 38 37 36 34 33 32 31 29 28 28 28 29 30 30 30 30 30 31 30 29 29 28 28 27 27 26
48 47 46 43 41 43 44 47 49 47 43 41 39 36 35 34 32 32 34 33 34 35 33 31 30 28 26 27 29 29 28 28 27 28 28 27 26 27 26 26 26 26 26
40 41 41 41 39 38 37 39 42 44 39 36 37 36 35 33 32 30 29 32 32 32 31 31 29 28 29 29 29 29 28 28 27 27 25 23 24 25 26 25 25 24 22

GFSMW_sfc_temp_066.txt.gz
Temp
72 70 67 63 62 59 58 61 59 60 64 63 60 60 60 63 63 64 66 71 72 71 73 73 71 72 73 74 73 72 70 70 72 71 71 70 70 71 74 74 73 74 73
69 67 66 65 63 60 61 59 61 64 64 64 64 69 65 66 65 66 65 68 71 68 68 71 71 73 73 71 71 71 69 71 70 70 71 66 68 70 71 73 72 71 73
69 66 66 65 62 60 60 61 60 62 66 65 64 64 63 63 64 64 65 67 68 66 67 69 72 72 73 71 70 70 71 68 69 70 69 66 65 72 73 70 72 71 68
72 71 68 66 66 62 62 64 62 60 62 63 61 64 61 60 70 69 66 66 68 66 68 70 72 69 68 68 69 71 70 67 68 70 72 73 73 68 67 71 70 71 67
73 71 70 70 70 68 64 66 65 62 61 61 61 60 61 64 66 66 68 64 65 67 68 68 69 67 68 69 68 67 69 71 69 71 71 69 70 69 66 65 66 67 64
74 74 73 72 71 69 68 67 67 65 61 60 61 61 64 65 66 62 63 63 62 65 64 65 66 67 67 69 68 71 69 71 70 71 71 69 67 65 65 58 64 62 54
75 74 72 71 71 68 67 65 67 66 64 60 62 63 63 62 61 62 62 62 62 62 63 68 69 68 69 69 67 69 72 71 70 69 69 69 67 62 58 55 58 60 59
75 74 74 73 71 69 69 67 68 69 67 65 65 68 66 65 67 64 64 62 64 67 65 66 68 68 71 73 73 72 73 72 71 70 70 68 64 57 62 57 55 53 61
77 75 75 73 72 69 69 68 69 71 69 68 66 65 68 68 71 70 69 68 66 69 68 69 66 67 72 73 73 72 72 72 70 68 68 65 61 60 61 62 63 59 53
77 76 76 73 73 72 70 70 70 71 71 70 69 69 70 70 71 72 71 72 73 73 73 72 72 73 73 73 72 73 73 71 71 68 65 66 65 62 62 61 60 59 56
76 76 76 76 74 73 71 70 70 71 70 70 70 69 70 71 71 71 71 72 72 73 72 72 72 72 72 73 72 71 71 70 67 64 60 59 59 57 57 56 57 57 57
79 79 77 76 74 73 72 71 69 70 70 71 71 69 69 70 69 69 71 71 71 72 73 73 72 73 73 73 72 71 69 66 60 59 57 55 55 53 54 54 52 53 55
78 78 78 76 75 74 73 72 70 70 71 71 70 69 68 69 69 69 69 70 70 71 72 72 72 72 72 72 71 69 64 58 57 57 56 54 53 53 53 51 51 52 53
79 79 77 77 77 76 75 73 72 71 72 71 71 70 69 69 69 69 69 69 70 69 70 71 71 71 71 71 71 69 61 60 57 56 56 55 54 52 51 49 49 47 44
77 78 78 79 79 77 76 75 75 73 72 71 71 70 70 70 70 69 69 69 69 69 70 70 70 71 69 70 70 69 66 63 59 57 56 55 52 48 50 48 46 45 43
78 79 80 81 80 79 77 75 75 74 73 71 71 72 71 71 69 69 69 69 69 69 69 69 69 69 69 54 47 56 65 61 59 55 53 51 46 44 42 42 42 44 42
75 77 78 79 80 81 79 78 77 76 73 71 72 72 72 71 70 70 69 69 68 68 67 68 69 68 69 46 45 45 58 57 54 51 48 44 45 43 42 37 37 36 37
71 75 78 78 79 78 81 80 81 77 74 73 72 72 71 71 71 70 69 69 69 67 66 66 67 67 67 45 46 44 53 50 48 47 46 44 40 40 38 37 35 36 35
72 74 76 76 76 76 76 76 79 79 77 74 73 73 72 71 70 69 69 69 68 66 65 63 62 59 52 41 40 43 44 41 39 39 40 39 35 35 37 33 32 32 32
70 69 70 71 72 72 73 73 74 76 75 75 75 75 73 71 70 69 68 65 65 57 49 45 45 42 42 38 39 42 39 35 33 34 35 35 34 33 33 32 31 30 32
69 67 69 67 65 64 67 68 70 70 73 73 72 71 71 69 70 66 58 51 45 42 39 37 38 39 39 38 38 38 36 33 32 32 31 32 33 33 32 34 34 33 34
66 64 63 62 61 62 65 65 63 60 63 64 63 61 59 53 53 48 45 43 41 37 35 34 33 34 35 35 36 36 35 34 32 30 30 31 32 31 31 31 30 30 31
64 63 60 58 55 53 57 57 50 51 50 49 47 45 44 44 44 43 40 39 38 36 34 32 31 30 32 32 33 32 32 31 30 30 31 31 31 31 29 28 27 28 30
58 58 58 54 50 47 45 46 48 48 46 43 42 42 40 39 40 40 38 37 35 34 33 32 29 28 28 28 29 29 29 30 30 30 30 31 30 31 28 27 29 31 30
50 51 51 50 47 46 42 41 43 45 42 40 39 37 36 34 32 32 34 34 35 36 33 31 30 27 25 27 29 29 28 28 28 29 30 29 29 31 32 31 30 31 31
44 41 39 37 41 41 39 37 39 40 39 36 36 35 34 34 32 31 30 32 32 32 31 31 30 29 30 30 30 30 30 29 29 30 29 29 30 30 30 30 30 30 26

GFSMW_sfc_temp_069.txt.gz
Temp
82 79 75 73 66 61 61 61 59 59 61 61 61 59 59 60 60 62 66 71 75 74 73 73 71 70 71 71 73 74 72 73 75 73 72 72 72 73 74 75 75 74 74
79 76 74 71 66 62 61 62 62 62 61 66 66 65 62 63 64 64 64 74 76 76 75 73 72 72 72 72 72 71 69 71 72 69 68 63 67 70 72 74 73 73 75
77 76 73 71 68 64 64 62 63 64 64 66 67 65 64 63 62 63 62 67 72 73 73 74 71 70 74 72 71 71 71 65 70 70 67 62 62 66 71 70 73 71 72
80 78 75 73 70 65 64 65 64 65 66 67 68 65 66 62 63 64 65 66 68 70 72 72 69 69 74 73 72 73 72 66 62 69 69 71 71 64 59 71 70 72 71
80 78 76 75 75 68 64 64 63 64 66 67 68 64 62 70 65 65 64 64 66 68 70 66 65 65 70 70 70 69 68 66 64 64 68 70 71 71 66 64 66 68 72
82 80 79 78 76 73 67 65 62 62 64 66 65 64 64 67 63 63 66 63 64 69 69 65 64 66 66 68 67 65 66 66 68 69 70 70 68 67 66 64 65 63 63
82 80 78 77 76 74 71 68 66 62 62 62 64 68 66 63 64 65 66 64 62 64 69 65 64 65 67 68 68 63 67 68 68 69 68 70 69 70 68 66 64 59 58
81 80 80 78 77 74 73 72 70 66 64 61 62 67 68 68 68 70 70 66 65 63 67 67 66 70 69 70 70 70 68 70 65 67 68 70 71 71 70 66 57 53 56
82 81 81 79 78 76 73 72 72 73 68 64 63 64 68 67 68 68 68 69 70 67 66 67 69 71 71 71 72 72 70 67 66 68 68 69 70 70 68 66 61 56 52
83 82 82 79 79 78 75 73 73 74 74 69 66 65 67 69 70 70 69 69 69 69 69 68 69 69 68 70 70 71 72 70 70 70 69 69 70 69 67 64 61 61 56
82 82 82 82 80 79 77 74 74 75 75 74 72 68 69 69 70 71 72 72 71 71 70 70 70 70 70 71 71 71 72 71 70 70 70 68 67 64 62 61 59 56 55
83 83 83 82 80 79 77 76 75 74 75 76 74 72 71 71 71 71 73 74 73 74 73 74 73 73 73 73 72 71 73 71 70 70 70 66 64 63 61 56 55 56 55
82 83 82 81 80 79 78 77 75 75 76 76 75 73 72 72 72 72 73 74 73 74 74 75 73 74 73 73 73 73 72 71 71 70 70 65 61 56 56 55 55 54 54
82 83 83 82 82 80 79 79 77 76 76 76 75 73 73 73 73 73 73 73 73 73 73 73 73 73 73 74 73 73 71 71 71 70 69 64 60 57 56 54 54 53 51
81 82 83 83 83 81 80 80 79 77 76 75 75 74 74 74 73 73 73 72 72 73 73 73 72 73 73 73 72 73 71 70 68 67 65 61 60 54 55 55 53 51 48
80 81 82 84 85 84 83 82 80 79 77 76 75 76 75 75 73 73 72 72 71 72 72 71 71 70 72 58 51 60 70 68 68 64 62 62 52 50 45 45 45 48 46
75 77 79 82 83 85 86 83 82 81 79 76 76 76 76 75 73 73 72 71 70 70 70 70 70 70 70 52 49 47 66 66 62 58 61 57 53 47 49 40 38 35 38
70 74 77 79 81 82 83 83 86 83 80 78 77 77 76 75 75 73 72 71 71 69 68 69 70 70 70 50 46 43 63 66 65 64 60 53 46 45 41 38 34 33 33
70 70 73 74 76 78 78 79 81 84 82 78 77 78 78 76 75 73 71 72 71 70 69 69 68 67 68 44 42 44 54 46 40 41 41 41 38 38 39 34 32 32 31
71 68 70 70 67 67 70 71 74 76 77 81 80 80 79 77 75 74 72 71 71 69 67 55 49 42 50 41 42 44 41 36 34 34 35 35 36 35 37 35 33 29 28
71 70 68 64 62 62 64 67 69 65 68 73 76 77 78 77 76 75 74 72 63 49 42 39 38 38 38 39 39 39 37 34 33 32 32 32 34 34 34 34 32 30 30
69 68 66 62 58 57 60 59 54 55 58 61 59 56 56 58 60 59 53 50 46 40 37 36 34 34 35 35 35 35 35 35 32 30 31 32 32 32 31 30 30 30 30
65 64 64 59 54 50 47 46 46 48 48 48 47 45 44 44 44 43 42 40 40 38 36 33 31 30 31 32 33 33 33 32 31 31 31 31 30 29 28 29 29 29 30
57 57 57 53 47 44 43 41 44 44 42 39 38 38 37 37 37 38 38 36 35 34 33 31 29 29 29 29 30 31 31 31 30 29 29 29 28 27 27 28 29 29 29
50 50 47 45 42 39 38 38 40 42 39 36 35 35 34 33 31 30 32 32 33 34 32 30 30 28 26 28 30 31 30 30 28 29 30 29 29 28 29 29 30 30 31
43 42 40 41 40 40 36 36 36 38 37 34 33 32 32 32 31 30 29 32 32 32 31 31 30 30 31 31 31 31 31 31 31 31 31 30 30 30 30 30 30 30 28

GFSMW_sfc_temp_072.txt.gz
Temp
81 79 74 71 67 64 61 62 61 60 61 60 59 59 58 59 59 60 63 63 65 69 68 66 66 67 66 66 67 66 66 65 65 63 61 62 64 63 63 63 63 65 66
79 76 72 70 65 63 62 61 61 60 61 62 61 61 61 61 61 61 63 65 66 68 67 66 66 66 66 65 65 65 62 63 64 61 59 56 58 60 62 62 64 62 65
77 74 71 68 64 63 62 60 61 62 63 64 63 62 62 59 59 61 61 63 68 68 68 66 66 65 65 65 65 64 63 59 62 63 59 54 53 56 60 61 61 61 60
79 77 73 69 66 64 65 63 62 62 63 65 63 61 59 57 60 62 63 62 65 68 69 68 67 66 66 65 63 65 64 62 59 60 63 61 60 56 53 57 61 61 61
78 76 74 72 69 66 65 64 64 63 64 64 64 62 61 62 63 63 63 61 62 65 67 66 65 65 65 64 63 63 63 63 59 60 58 59 60 59 56 52 56 59 61
78 78 76 74 71 67 65 64 64 63 64 64 64 64 63 62 61 61 61 61 62 63 64 65 65 63 64 64 63 63 63 60 60 61 60 59 59 58 55 54 55 55 57
78 77 74 74 72 66 63 63 62 62 63 63 63 64 64 63 62 61 62 61 61 62 63 64 63 64 64 63 63 61 61 61 59 59 59 62 59 61 59 57 55 54 55
78 77 76 74 72 68 65 64 63 62 63 63 63 64 65 64 65 63 64 64 63 63 64 64 64 64 64 63 62 61 61 60 60 59 61 63 61 60 61 59 55 51 52
79 78 77 75 73 71 68 66 64 63 62 61 62 64 65 65 64 64 65 66 65 65 64 64 64 64 64 64 63 62 62 63 62 61 61 62 62 61 61 60 59 56 52
80 79 78 75 75 73 70 69 68 67 64 62 62 63 65 65 65 65 65 65 66 65 64 64 64 64 64 65 65 64 65 63 63 63 61 62 63 61 61 61 58 57 56
79 78 79 77 76 75 72 70 69 70 68 64 63 62 63 65 65 66 66 66 65 66 65 64 64 64 64 65 65 65 65 63 64 63 62 62 62 61 61 60 59 58 57
80 80 79 77 76 75 73 70 69 69 70 68 65 63 63 64 64 65 65 65 65 66 66 66 65 65 65 65 64 63 65 64 63 64 62 62 63 61 61 60 58 58 58
80 80 79 78 76 75 74 73 71 70 72 72 69 66 64 64 64 64 66 66 66 66 66 66 66 66 65 65 65 65 64 64 64 64 63 63 63 61 61 60 58 58 57
79 81 79 79 79 77 76 74 72 72 72 73 72 68 66 65 66 66 66 66 68 67 67 67 66 66 66 67 66 66 65 65 65 65 64 64 63 62 60 59 57 56 55
76 78 78 78 79 78 77 77 75 73 72 72 72 70 69 69 68 67 67 67 67 68 68 67 67 67 68 69 67 68 66 65 66 65 65 65 63 56 57 57 56 55 53
71 74 76 78 79 79 78 78 77 75 74 72 71 72 71 70 68 68 68 67 67 67 67 67 67 66 68 58 52 59 66 66 65 64 64 64 52 51 47 46 47 54 54
67 69 71 73 74 76 76 75 77 77 75 72 72 72 72 70 69 69 68 67 66 66 65 66 66 66 66 52 49 48 64 64 63 62 62 61 58 49 55 45 40 36 36
66 66 68 69 70 70 69 70 74 75 76 75 74 73 72 71 71 69 68 67 66 65 65 64 65 65 66 50 48 45 57 61 62 61 60 55 54 50 46 38 34 33 34
67 66 67 65 64 63 64 67 70 73 74 73 74 75 73 72 70 69 68 67 66 65 64 65 63 63 63 48 46 45 54 57 43 40 40 43 41 39 39 35 33 31 30
67 66 64 61 57 56 60 61 57 57 57 59 62 64 73 72 71 69 68 67 67 65 65 60 47 40 48 39 41 44 43 37 34 34 35 35 36 36 36 35 33 30 28
65 65 62 55 51 51 54 50 50 48 51 54 54 52 54 55 60 67 66 65 63 47 41 37 36 37 38 38 39 40 38 35 32 32 32 33 34 35 34 34 31 29 30
59 61 59 52 49 47 46 45 43 46 46 45 43 42 42 44 47 50 47 46 43 39 36 34 32 33 34 35 36 36 35 35 32 31 31 32 33 33 32 31 31 31 30
54 53 52 49 45 43 41 39 40 44 42 40 38 37 37 36 37 38 39 39 39 36 34 32 30 30 32 32 34 34 33 32 31 31 31 31 31 31 30 31 31 30 30
47 47 46 43 41 40 40 39 39 43 40 38 36 35 33 32 32 33 34 33 34 33 32 31 29 29 29 30 31 30 30 30 29 29 27 27 27 28 28 27 28 27 27
41 41 39 38 37 38 36 38 38 39 38 36 35 33 32 31 30 30 30 30 31 33 30 29 29 28 27 29 31 29 28 28 28 28 28 27 27 27 27 27 27 27 27
35 34 34 33 33 32 32 33 36 37 36 33 32 31 30 30 30 29 29 31 32 32 32 31 31 30 31 32 32 32 32 32 31 30 29 28 28 27 27 25 25 25 23

GFSMW_sfc_temp_075.txt.gz
Temp
69 68 63 62 59 60 60 60 59 59 60 59 59 59 58 59 60 61 62 63 64 65 65 65 62 62 62 62 64 62 62 60 62 59 57 59 60 60 60 59 62 63 64
67 65 60 60 58 60 61 60 59 60 60 61 61 61 59 59 61 62 62 64 64 65 65 65 63 62 61 61 60 62 59 60 61 59 57 55 57 57 58 58 60 58 61
64 64 60 58 57 58 60 60 60 60 61 62 62 61 61 59 58 60 61 63 65 65 66 66 64 63 63 62 61 61 61 59 60 64 57 52 51 53 57 57 57 58 57
67 65 61 57 57 58 61 61 61 61 62 62 61 59 58 56 59 60 62 63 64 64 65 64 62 63 64 63 60 61 61 59 57 58 61 59 57 52 51 56 56 57 58
66 64 62 59 59 59 60 59 61 61 62 62 62 60 58 60 61 61 61 61 62 64 65 64 62 60 60 60 60 60 60 59 57 58 57 57 57 56 54 52 54 57 57
68 66 65 62 59 60 62 61 60 61 62 62 61 60 60 59 59 60 60 60 61 61 64 62 61 60 59 60 61 60 60 59 59 59 58 57 56 55 53 51 52 53 54
68 66 63 61 59 59 61 61 61 59 62 61 61 61 61 59 60 60 60 59 59 58 59 59 60 60 61 60 61 61 60 59 58 58 59 60 59 59 58 56 54 54 54
69 66 65 63 60 59 60 62 61 61 62 62 62 63 63 61 60 60 60 61 61 61 62 62 62 61 60 63 60 59 60 60 58 58 59 60 59 59 60 58 55 51 52
68 67 67 65 61 59 59 59 60 63 62 62 62 62 62 63 62 62 62 61 62 63 62 61 62 62 62 61 60 61 60 61 60 60 59 59 59 58 59 59 59 57 52
69 68 68 66 63 61 60 60 60 60 60 62 62 63 63 63 64 63 62 62 64 63 62 62 62 62 62 62 61 60 60 59 60 61 59 59 60 58 59 60 59 58 57
68 69 69 68 66 64 62 60 60 60 59 60 61 62 63 63 64 63 62 62 63 63 62 63 62 63 62 63 62 62 61 60 61 61 60 60 59 59 58 59 59 58 57
67 69 70 69 66 66 64 62 62 61 61 60 60 60 62 63 63 63 63 62 62 64 62 62 62 62 62 62 61 62 64 61 61 61 60 60 60 58 60 59 58 58 58
67 67 69 69 67 67 65 65 64 64 63 61 60 59 59 62 63 63 64 63 63 62 63 63 61 62 62 62 62 62 62 62 61 61 59 59 58 58 59 58 58 59 59
70 67 65 68 69 68 67 66 65 66 66 63 62 59 59 60 62 64 63 64 62 63 62 63 62 61 62 62 63 63 62 62 62 61 60 61 61 59 59 58 58 59 58
64 65 66 66 67 66 67 68 67 66 67 66 64 61 61 61 61 61 62 62 62 63 63 63 63 63 63 63 62 63 62 61 60 61 62 62 60 55 58 60 59 58 57
61 63 65 64 62 63 62 64 66 67 67 66 66 66 64 62 61 61 62 62 62 63 63 62 62 62 63 55 50 57 62 62 61 60 61 62 53 53 49 48 50 57 57
61 61 60 60 59 59 61 61 62 63 63 66 67 67 65 64 63 63 63 62 62 62 62 62 63 62 63 50 48 47 62 61 61 61 61 60 59 51 58 45 39 37 37
60 58 56 54 53 53 58 59 57 57 57 59 60 63 62 65 65 64 64 63 63 62 62 62 62 63 64 49 47 45 56 61 61 61 60 59 58 54 51 40 35 33 34
57 54 52 50 49 48 53 53 52 53 52 53 53 52 54 55 63 62 63 64 63 62 62 63 61 60 62 47 47 46 56 57 58 43 42 46 48 43 41 37 33 31 31
53 50 49 47 45 45 50 48 47 47 47 49 48 48 47 48 48 51 53 59 61 62 61 58 49 40 51 39 41 42 51 46 37 35 35 36 38 36 37 35 33 29 28
50 51 46 42 42 43 45 43 42 42 45 46 45 43 42 43 42 45 46 45 50 50 45 42 37 37 37 38 39 40 41 41 34 33 32 34 35 36 35 35 33 30 30
46 47 43 41 41 41 41 39 38 42 43 42 41 39 38 39 39 38 39 40 40 40 37 35 32 33 33 34 35 35 35 35 32 31 32 32 33 33 32 31 31 31 30
41 43 41 40 39 38 38 35 37 40 40 38 36 35 35 35 35 34 33 33 36 35 33 32 31 32 32 32 33 33 32 32 31 31 31 32 31 31 30 31 30 30 30
37 39 38 35 34 35 34 34 37 39 38 35 33 33 32 31 32 33 32 31 32 31 31 31 29 29 30 29 29 29 29 29 28 28 28 28 28 27 27 27 28 28 27
35 34 33 32 32 33 32 33 35 37 35 34 33 31 31 30 30 30 30 30 30 32 30 29 29 28 27 28 30 29 28 28 28 28 28 27 27 26 25 26 25 25 25
31 31 30 31 31 31 31 32 34 33 33 31 30 30 29 30 29 29 28 31 32 32 32 32 32 31 32 32 32 32 32 32 31 28 26 24 24 24 24 22 21 22 23

GFSMW_sfc_temp_078.txt.gz
Temp
65 62 61 59 58 57 57 57 57 59 59 60 59 59 59 60 61 62 63 64 65 65 65 65 62 63 62 62 62 61 61 56 58 56 55 56 57 58 59 58 60 59 59
61 60 58 59 59 58 57 58 58 59 60 60 60 60 60 60 61 61 62 64 64 65 65 65 63 63 61 59 58 60 57 57 60 58 54 52 55 57 58 57 58 57 60
60 57 57 57 58 58 57 59 59 59 59 60 61 60 59 58 58 59 60 61 63 65 65 64 64 63 63 60 57 58 62 57 57 61 55 51 51 53 54 55 55 55 56
63 59 57 56 57 57 58 59 60 60 60 60 60 59 58 56 58 60 61 61 62 63 63 63 63 62 63 60 60 60 58 57 58 56 59 58 56 51 50 54 55 55 56
62 58 57 56 57 57 57 60 60 60 61 61 59 60 58 60 59 60 59 60 61 61 63 62 62 62 62 60 60 60 58 58 56 59 56 56 56 55 52 49 52 53 55
63 61 59 58 55 56 57 60 60 60 61 61 60 59 59 59 58 58 58 59 61 61 61 61 62 62 62 61 61 61 60 58 58 57 57 57 55 53 52 50 51 51 54
62 58 55 55 55 55 56 60 60 59 61 60 60 60 58 59 59 59 59 59 60 59 61 61 60 61 61 62 62 61 58 57 56 58 57 58 58 57 56 53 52 52 54
62 59 58 57 56 56 57 58 59 59 60 60 60 61 61 60 59 60 59 60 61 61 62 62 61 61 60 60 60 59 58 58 58 56 57 58 58 58 59 57 54 51 52
62 61 59 58 57 57 57 58 60 61 61 60 60 60 61 61 58 60 60 59 60 62 60 61 62 61 61 62 59 59 58 58 58 58 58 58 58 58 59 59 57 55 51
63 62 60 59 59 59 59 60 62 62 62 61 61 61 62 62 60 59 58 60 60 61 61 60 59 60 61 61 61 60 59 59 59 60 58 59 61 59 59 59 59 58 57
63 63 62 60 60 59 58 58 59 61 62 62 62 62 62 62 62 60 59 60 60 60 60 61 60 61 61 61 60 61 61 60 60 60 58 58 60 60 59 59 60 58 57
64 64 63 61 59 58 57 57 58 59 59 60 60 61 62 62 61 62 61 61 60 61 61 61 61 61 62 62 61 61 61 58 59 59 58 58 59 57 59 59 58 57 58
61 62 63 62 60 59 58 58 58 59 60 60 59 58 59 61 61 62 62 62 61 60 61 61 60 61 61 61 60 60 60 60 59 60 58 59 58 57 58 58 57 57 57
61 60 59 60 61 61 60 59 59 60 60 59 58 58 58 59 60 62 62 62 62 62 61 61 61 61 62 61 61 60 59 59 60 60 60 59 59 58 58 57 57 57 56
57 57 56 56 57 58 59 62 61 61 61 60 59 58 59 60 60 61 61 63 62 62 62 61 61 61 61 61 60 61 60 59 59 60 60 60 58 54 56 59 58 57 56
54 53 54 53 53 56 57 58 59 59 62 60 59 59 59 59 58 59 60 61 61 62 62 61 61 59 61 52 49 55 59 60 59 58 59 60 52 52 47 47 49 56 56
52 50 49 49 49 51 53 52 53 55 56 59 60 59 60 59 59 59 59 59 59 60 59 60 60 60 60 49 47 46 59 59 58 58 58 58 59 51 57 49 44 43 40
47 46 46 45 46 49 50 50 51 51 51 51 51 51 51 53 55 60 59 58 59 58 58 59 60 60 61 47 46 45 56 60 60 60 60 59 59 58 56 55 46 41 35
46 45 45 44 44 46 47 47 46 47 48 48 48 47 49 49 50 50 50 56 59 59 59 60 59 59 60 44 45 45 56 58 58 60 60 57 57 54 46 49 38 32 32
44 42 42 41 40 43 45 43 43 43 42 43 43 43 44 45 44 45 45 46 48 53 57 47 39 36 39 36 37 40 51 54 53 41 37 36 38 39 40 49 37 31 30
43 43 40 38 38 40 43 40 40 39 40 40 40 38 38 40 40 41 42 42 44 41 38 35 34 34 34 34 36 36 38 42 34 33 32 33 34 35 34 34 33 30 31
40 41 38 37 37 38 38 37 36 40 39 36 35 34 34 36 36 35 36 38 38 36 35 34 31 31 31 33 34 34 34 34 32 31 31 32 33 33 32 31 31 31 30
36 38 37 36 35 35 35 33 35 39 37 33 31 32 32 32 33 31 31 33 34 33 32 31 30 29 30 30 31 32 32 32 30 30 31 31 31 31 29 30 30 30 29
33 35 34 32 31 33 33 33 34 38 36 33 31 31 31 30 31 32 31 30 30 30 31 30 29 28 28 28 29 29 30 29 29 28 28 28 27 27 26 26 26 26 26
32 32 32 31 31 32 32 33 33 35 33 32 31 31 30 30 29 29 29 30 31 31 29 29 29 28 27 29 30 30 29 29 28 28 27 26 25 23 23 23 24 24 24
29 29 29 29 30 31 30 31 33 32 31 30 29 29 29 29 29 28 27 30 31 31 32 32 31 30 31 32 32 31 31 30 29 26 23 23 22 21 21 21 20 20 21

GFSMW_sfc_temp_081.txt.gz
Temp
62 59 58 58 56 55 55 57 58 59 60 60 59 60 60 61 63 63 63 62 62 63 63 62 59 60 60 60 62 59 58 55 58 56 53 54 55 55 56 56 56 57 58
55 57 58 59 58 56 55 56 58 59 60 60 60 60 60 60 62 62 62 63 62 64 64 63 62 61 60 59 59 58 55 54 56 56 53 50 53 54 56 56 58 58 58
56 55 58 59 59 58 57 58 57 58 59 60 60 59 59 59 59 60 60 61 62 63 64 64 64 62 63 60 60 59 60 55 54 59 53 49 49 52 53 55 56 56 55
60 57 57 58 58 58 59 60 56 59 60 61 59 59 58 57 58 59 60 60 62 62 63 64 62 63 63 61 59 61 62 57 56 54 57 57 55 51 50 54 56 56 55
60 57 56 59 60 59 58 59 57 58 61 60 60 59 57 59 58 59 58 59 59 60 61 61 61 61 62 61 60 58 57 56 55 55 54 55 54 54 52 50 52 52 54
61 59 57 60 58 58 58 56 56 59 59 60 60 60 58 57 57 57 57 57 58 59 59 60 61 61 61 61 60 60 58 57 57 58 56 55 54 53 52 51 50 51 53
59 56 54 56 56 56 57 56 56 57 59 58 57 60 61 59 56 58 58 57 57 58 59 59 60 61 61 60 60 59 59 58 56 57 59 57 56 56 55 53 53 51 52
60 56 55 55 56 57 57 57 57 58 59 59 59 58 61 61 59 57 59 59 60 60 62 60 61 61 61 61 59 58 58 58 57 57 57 59 57 57 57 56 54 50 50
59 56 56 56 55 56 57 56 57 58 60 60 60 59 58 59 58 59 60 60 60 60 62 61 60 60 60 61 60 59 59 59 59 58 57 59 58 57 58 57 56 54 50
59 57 57 56 56 56 57 56 57 58 59 61 60 59 58 58 59 56 57 56 56 58 57 59 59 60 60 60 60 60 60 59 60 59 56 57 58 57 57 57 57 56 55
59 58 58 57 57 57 56 56 56 57 58 61 61 60 60 60 60 57 55 56 56 57 57 58 59 59 60 61 60 61 60 59 60 58 57 57 60 58 58 58 58 57 57
61 59 58 57 56 56 56 56 57 58 59 60 61 60 61 61 60 58 56 55 56 56 57 58 59 60 59 59 60 59 60 57 58 58 58 58 59 58 59 58 58 58 58
57 57 56 56 55 55 56 57 56 56 57 58 58 57 59 60 60 60 60 59 57 57 57 58 58 58 58 58 58 59 60 59 59 59 58 59 58 57 58 57 57 57 57
54 54 56 56 56 56 56 57 57 57 57 57 56 56 56 57 58 61 61 61 61 60 58 58 59 59 59 59 59 59 58 59 58 58 59 58 57 57 57 56 57 58 57
50 51 51 53 55 55 56 58 57 57 58 57 57 57 56 57 57 57 58 59 61 61 61 60 60 59 59 60 59 60 59 58 57 57 57 58 57 53 56 59 57 56 55
47 48 49 50 50 51 52 53 53 54 57 57 56 57 57 57 57 57 57 57 57 58 59 60 60 59 60 51 47 53 59 58 57 57 57 58 51 51 47 46 48 56 55
45 45 45 47 47 48 49 48 50 52 52 53 53 54 56 57 56 57 57 57 56 57 57 58 59 59 60 48 47 46 58 58 57 57 57 57 58 51 56 48 43 44 44
42 42 43 44 45 47 47 47 48 48 48 47 47 48 50 51 53 54 57 57 57 57 57 58 59 59 59 43 44 44 54 58 58 58 58 57 58 58 56 55 54 51 51
41 41 41 42 44 44 45 45 44 44 43 43 42 43 45 45 46 46 47 49 50 54 57 58 58 54 44 37 37 39 51 55 57 58 58 49 53 50 45 52 51 41 32
40 39 39 39 40 42 43 42 40 38 38 38 39 40 41 40 39 41 41 43 46 44 42 36 35 35 35 35 36 38 42 48 50 39 36 35 35 35 36 39 47 36 30
39 39 38 36 37 40 41 39 39 35 36 36 35 35 36 37 37 37 39 39 39 37 34 32 32 32 33 34 36 37 36 34 34 33 32 32 34 35 35 34 33 31 30
37 38 36 34 36 36 38 35 36 37 35 34 33 33 33 34 35 34 35 35 35 34 33 32 31 31 31 33 34 34 34 35 33 31 31 32 32 33 33 32 32 31 30
34 36 35 34 34 34 34 32 35 37 35 33 31 31 32 32 33 32 31 31 32 32 30 30 29 29 30 30 32 32 31 31 30 30 30 30 30 30 29 30 29 29 27
31 34 33 31 30 32 32 32 34 36 34 32 31 31 30 30 31 32 31 30 30 29 29 29 28 28 28 28 29 29 30 29 29 28 27 27 27 26 25 25 25 25 25
30 30 30 29 29 30 30 31 32 34 32 31 30 30 30 29 28 28 29 29 30 31 29 29 29 28 28 29 31 29 27 26 27 26 25 23 22 21 21 21 21 22 22
27 26 27 28 28 29 28 29 30 30 30 29 29 28 28 28 28 26 24 29 30 30 31 31 29 28 30 30 30 30 29 29 27 22 20 20 20 19 19 18 18 19 19

GFSMW_sfc_temp_084.txt.gz
Temp
63 61 56 57 56 55 57 58 56 56 59 59 60 61 60 61 61 63 63 63 63 63 62 61 58 61 61 60 60 60 57 55 56 55 52 53 54 55 55 56 57 57 58
56 55 55 56 57 56 57 58 59 58 60 58 61 61 60 61 62 63 62 61 60 61 62 60 60 60 59 59 60 60 54 54 58 53 52 49 52 55 56 56 57 57 59
57 55 55 56 57 56 56 57 58 60 60 60 60 59 60 59 60 61 60 60 59 60 62 60 61 60 61 59 61 59 58 57 55 60 54 49 49 52 54 55 57 57 57
59 57 56 56 58 57 58 58 58 60 59 59 59 59 58 57 58 60 61 59 59 60 61 62 61 61 61 61 60 62 60 57 55 54 56 56 54 51 49 53 56 57 56
59 57 56 57 60 59 58 59 57 58 60 59 60 59 58 58 59 59 59 59 59 60 61 61 61 61 61 60 59 57 57 57 56 56 54 55 55 54 52 50 52 54 56
59 58 55 59 60 59 59 58 57 59 60 59 59 59 57 57 58 57 57 58 59 59 59 60 61 60 59 59 59 58 58 56 57 58 56 55 54 54 53 52 52 52 54
57 55 54 56 58 56 57 57 57 58 59 57 59 59 58 57 58 58 57 58 58 58 59 60 59 59 59 59 60 59 58 57 56 56 57 57 57 57 55 54 52 52 54
59 57 55 56 58 57 57 57 57 58 59 58 58 59 60 59 59 59 59 58 59 59 59 59 60 60 59 59 60 60 59 57 57 56 56 56 57 57 57 56 54 52 52
57 58 55 57 58 57 57 57 57 58 59 58 58 58 59 59 58 58 59 59 59 59 59 59 59 59 60 60 58 59 59 58 57 57 57 56 58 57 58 58 57 56 51
60 55 54 56 57 58 57 57 56 56 59 58 58 58 58 59 60 59 55 56 58 60 59 59 59 59 60 60 60 59 59 59 58 58 56 56 58 58 58 57 56 56 57
56 55 55 55 57 58 58 56 55 55 56 59 57 59 58 57 56 55 54 55 55 57 59 59 59 59 59 59 59 59 59 58 58 58 57 57 59 58 58 58 58 57 56
56 56 54 55 55 56 57 56 54 54 55 56 57 59 58 58 58 58 56 54 55 55 56 58 59 59 59 59 59 58 59 57 57 58 58 58 59 57 59 57 57 57 58
53 52 54 55 56 56 56 56 54 54 55 56 58 58 58 58 57 56 56 54 54 55 55 56 57 57 58 58 59 59 58 57 57 58 59 58 58 57 58 57 57 58 58
54 53 53 53 55 57 57 58 56 55 55 55 55 54 55 57 58 59 57 56 56 54 54 56 56 56 56 57 58 58 58 58 58 59 59 59 59 58 59 57 57 57 57
48 50 51 52 54 55 56 56 56 56 56 55 54 54 54 55 55 55 56 57 57 57 56 56 56 56 56 57 56 57 56 56 56 56 56 57 57 52 55 59 57 56 55
44 46 47 48 49 50 50 51 52 54 57 55 55 58 55 55 54 54 55 55 55 55 55 55 57 57 58 50 47 53 58 58 58 57 57 57 50 50 46 46 48 56 58
41 42 43 45 45 46 47 47 49 51 51 51 51 51 54 56 55 56 56 56 56 56 55 56 57 57 57 45 46 45 58 59 58 58 57 57 57 50 55 48 43 44 44
39 39 41 42 43 45 45 45 46 45 45 45 45 46 47 48 49 50 49 52 55 56 56 56 57 58 41 37 37 37 49 57 58 58 58 57 57 57 54 54 53 52 49
38 38 39 41 42 43 43 41 40 41 40 39 40 41 42 43 43 42 43 45 48 46 40 39 41 40 37 36 36 37 45 50 53 53 38 38 39 38 39 42 46 41 32
37 37 37 37 39 41 42 38 36 35 34 35 36 38 39 39 38 39 39 41 40 37 37 34 34 34 34 35 36 37 41 41 37 34 34 34 34 35 36 39 39 33 30
34 37 36 34 35 39 40 37 35 32 34 34 35 35 36 36 36 37 37 37 36 35 33 31 31 32 32 33 35 36 35 34 33 32 31 32 33 33 34 34 33 32 31
34 35 33 32 34 35 36 35 34 35 34 33 33 33 33 34 35 34 34 35 34 32 31 31 30 30 31 33 33 33 33 33 30 29 29 30 31 31 31 30 30 30 29
32 34 32 31 31 32 32 32 34 35 34 32 31 31 32 32 32 31 31 31 32 31 30 30 29 29 30 30 32 32 30 30 28 28 29 29 29 28 27 28 27 27 26
29 31 30 29 28 30 30 30 34 34 33 30 29 30 29 29 30 31 31 30 30 30 30 29 28 28 29 28 27 27 27 27 26 25 24 25 25 23 23 23 24 23 23
28 29 28 27 27 28 28 29 31 33 31 30 30 28 28 27 27 28 28 28 29 30 27 27 28 26 26 28 30 27 24 23 24 23 23 21 21 20 20 20 20 21 21
26 25 26 25 26 27 27 27 28 30 29 28 28 27 26 26 24 24 24 29 29 30 30 30 28 27 29 30 30 29 29 28 26 21 18 17 17 17 18 17 17 17 17

GFSMW_sfc_temp_087.txt.gz
Temp
75 75 71 69 67 66 66 66 64 63 64 63 62 61 60 61 61 63 64 64 64 64 64 62 61 62 64 66 66 66 65 66 68 65 64 64 66 66 68 69 68 67 69
72 72 68 65 65 65 65 64 66 64 64 66 65 64 62 62 63 63 65 64 63 63 62 60 61 62 65 65 64 65 65 66 66 65 64 57 61 65 65 66 67 67 69
71 72 66 64 64 63 63 62 66 65 64 65 64 63 63 62 62 61 62 63 63 63 61 61 62 65 64 64 65 66 66 61 64 66 67 58 60 62 66 65 67 66 66
70 71 67 64 63 63 62 64 65 66 66 66 65 63 62 60 59 62 60 60 61 61 60 62 63 63 63 64 65 66 65 64 62 64 66 68 66 63 58 62 65 66 64
70 71 66 65 65 62 60 61 64 64 64 62 63 62 61 61 62 60 59 58 58 59 60 62 62 62 63 63 63 61 63 66 65 65 63 64 65 64 62 60 60 64 64
70 68 65 64 65 61 60 60 59 63 62 61 62 63 62 61 59 59 58 57 57 58 60 60 60 62 63 62 63 63 62 62 64 66 66 65 64 62 62 62 61 61 64
68 63 61 62 63 59 59 59 59 62 62 61 62 62 62 63 61 58 58 57 56 57 59 60 60 60 62 60 61 63 62 60 61 62 64 66 67 67 66 65 61 61 64
64 63 63 63 62 60 59 59 59 62 60 61 61 62 62 61 61 60 59 59 58 58 59 59 59 59 60 59 59 61 62 61 62 62 64 65 66 66 67 64 62 60 61
61 64 63 63 62 61 58 59 60 61 60 60 60 61 62 61 60 61 60 59 60 59 58 58 58 58 58 60 60 59 60 60 62 63 63 64 63 64 66 66 66 65 59
60 63 64 62 62 63 59 59 60 61 60 60 61 61 60 61 61 60 59 59 59 60 59 59 59 58 58 59 60 60 61 62 61 60 59 59 62 62 61 65 66 64 62
58 60 62 63 63 60 59 58 59 60 59 60 62 60 60 60 61 61 62 60 59 59 59 59 59 59 59 59 59 59 60 59 59 59 58 57 58 57 57 57 58 60 60
57 59 58 58 59 57 57 57 58 59 60 61 63 61 60 59 59 60 61 61 63 64 62 60 59 58 58 59 59 59 61 59 59 59 59 59 59 57 58 58 57 57 59
54 56 56 56 56 56 57 57 59 61 61 62 62 60 60 59 59 59 59 59 61 63 63 63 62 62 59 58 59 59 60 59 59 59 58 58 59 58 62 63 62 60 60
49 52 55 55 56 57 57 57 60 63 63 63 64 61 60 61 60 60 59 59 60 62 63 64 64 64 64 64 61 60 60 60 59 60 61 62 62 62 62 59 59 58 58
44 45 47 50 53 55 57 59 60 62 63 62 63 63 63 64 64 64 63 63 62 62 62 63 64 64 64 64 64 62 60 60 60 61 62 65 63 54 58 64 64 63 61
41 42 43 45 46 48 50 50 53 59 62 60 58 60 61 62 62 62 62 62 62 63 62 62 62 62 60 49 47 55 60 60 61 61 63 64 52 52 46 46 48 56 60
38 39 40 41 43 44 46 46 47 49 49 49 49 50 53 53 53 57 58 59 59 60 59 60 60 59 53 38 40 41 60 61 60 60 59 59 59 52 59 49 43 44 42
36 36 37 39 40 42 42 42 44 44 43 43 43 45 46 46 47 48 48 50 49 46 48 45 49 42 39 37 37 37 50 54 57 50 44 45 46 40 41 46 50 47 35
34 34 36 38 40 39 39 39 38 39 38 38 39 41 42 42 42 41 42 44 42 39 38 37 38 37 36 36 36 40 48 48 40 37 36 37 37 36 37 40 40 33 32
33 33 34 35 37 39 39 36 35 35 34 35 36 38 39 39 38 39 38 38 38 36 35 33 34 34 34 35 36 39 43 37 34 33 33 33 34 34 35 37 38 33 32
32 33 33 32 33 37 37 34 35 33 35 37 37 36 37 37 37 37 38 37 35 34 32 31 32 32 33 33 35 35 35 33 31 30 30 31 32 33 33 33 31 31 30
31 31 30 30 32 34 36 34 33 35 35 35 34 35 35 36 37 36 35 35 35 33 32 32 31 31 32 33 33 33 33 33 30 29 30 30 31 31 31 31 30 30 29
29 30 29 28 29 31 32 32 33 34 33 33 32 32 33 34 35 34 34 34 34 33 32 31 30 31 32 31 31 30 30 30 30 29 29 29 29 29 29 28 29 30 30
29 30 29 27 26 29 29 30 32 33 33 32 31 32 32 33 34 34 33 32 32 32 32 32 30 31 32 32 32 31 30 29 29 28 28 27 27 26 27 28 29 29 29
27 28 28 27 27 29 29 29 31 33 32 31 31 30 31 31 30 30 31 31 31 32 29 29 30 29 28 29 31 30 30 30 27 29 29 28 28 27 27 26 26 27 28
26 26 26 26 26 27 27 28 30 32 32 30 29 28 29 29 30 29 27 28 29 30 30 30 30 29 29 30 29 29 28 27 28 27 25 24 24 23 24 23 23 23 23

GFSMW_sfc_temp_090.txt.gz
Temp
84 86 86 87 85 83 80 80 77 69 69 69 68 69 66 66 64 64 64 65 65 65 65 64 62 62 61 62 66 69 71 73 74 70 68 68 70 71 76 77 77 76 76
82 82 84 85 81 81 79 79 78 69 71 76 77 74 67 67 66 64 64 65 65 66 64 63 62 62 61 61 68 69 70 71 71 67 68 58 62 66 71 76 75 73 76
77 80 82 84 81 78 77 78 78 72 75 77 77 72 67 65 64 62 62 63 65 65 63 62 62 62 62 61 67 70 71 68 70 72 70 62 63 66 69 71 74 73 74
78 79 81 84 81 79 78 77 77 76 75 75 75 71 71 64 64 62 63 63 63 63 62 62 62 62 63 64 68 72 71 70 67 71 76 75 76 67 62 71 71 73 73
77 78 81 83 84 79 75 74 76 76 75 74 75 71 69 70 72 68 62 62 62 62 61 61 62 61 63 66 70 70 70 71 71 70 70 71 73 73 72 67 69 72 74
75 79 82 83 81 77 68 70 74 75 75 74 73 72 70 68 68 62 60 59 58 60 61 61 61 62 63 66 68 68 70 71 71 72 71 70 68 69 71 70 70 69 71
73 75 76 77 76 70 63 66 72 73 72 71 71 69 69 70 68 61 58 57 57 56 57 59 59 59 63 66 66 68 69 69 70 70 71 72 72 75 74 72 71 69 72
72 74 74 74 74 66 61 62 67 71 70 69 68 68 71 69 68 61 59 57 58 57 58 58 59 60 62 65 66 67 67 67 67 68 69 70 71 74 73 71 68 65 68
70 73 74 74 74 67 61 61 67 72 70 68 65 68 68 67 64 62 60 58 59 58 59 59 60 61 62 63 64 64 62 64 66 68 67 69 70 71 74 73 72 67 61
68 69 73 73 73 70 62 62 68 71 68 68 65 68 67 66 66 64 60 59 59 59 58 57 58 59 59 60 60 59 60 60 61 63 66 68 69 71 69 70 69 68 64
61 64 68 70 71 68 62 60 66 66 66 65 66 67 65 66 64 63 61 59 59 59 58 57 58 58 57 58 57 58 60 61 61 62 64 66 67 62 63 63 63 59 62
55 59 61 65 64 61 60 60 62 63 66 64 65 64 63 66 64 64 63 59 60 60 61 59 59 59 58 57 57 59 60 59 59 66 61 62 61 59 58 57 57 57 59
50 50 57 59 59 59 58 59 60 62 66 63 65 63 63 65 65 66 67 67 64 61 61 59 59 59 58 57 57 58 58 60 63 62 62 62 61 59 59 58 58 60 65
46 48 47 53 57 58 58 58 60 63 63 63 65 64 64 63 63 64 65 66 68 66 66 64 62 61 60 60 59 58 60 60 64 63 61 61 60 60 60 60 61 59 60
43 43 43 44 47 55 57 59 64 66 66 65 64 63 63 64 63 63 63 62 62 65 68 67 66 66 64 64 61 62 60 60 64 66 67 67 60 54 59 65 63 63 63
39 40 41 42 43 45 50 52 58 64 66 66 63 66 66 67 67 65 65 64 62 63 63 64 65 66 66 39 41 56 65 64 64 63 64 65 53 54 47 47 48 55 63
37 36 38 39 40 41 44 46 47 49 50 50 49 50 52 52 52 58 62 63 64 65 62 62 62 50 46 37 38 38 59 62 61 61 60 60 59 51 58 48 43 43 37
34 34 35 38 37 39 41 42 43 44 44 43 44 45 46 46 48 48 48 46 45 44 44 43 42 40 39 36 37 37 53 58 43 41 42 44 43 39 40 45 41 36 35
34 33 34 35 37 37 38 39 38 38 38 38 39 41 42 42 42 41 41 41 39 37 37 38 37 37 35 36 37 42 45 39 36 35 35 37 36 35 37 42 36 32 32
32 32 32 33 34 36 37 35 35 36 35 36 37 39 39 39 38 38 37 37 37 35 35 34 34 34 34 35 37 41 39 33 32 32 32 33 34 34 35 41 36 31 31
31 31 31 30 31 34 35 33 34 32 34 34 36 37 38 37 38 37 37 36 34 34 32 32 32 33 34 34 35 36 35 32 31 30 30 31 32 33 33 33 32 30 30
30 29 29 29 30 32 33 32 30 32 33 34 36 37 38 39 39 38 37 37 35 34 33 33 32 33 33 33 33 34 34 35 33 31 31 31 32 32 32 32 31 32 32
30 30 28 28 29 30 31 30 31 35 35 34 34 37 38 38 38 38 37 37 37 36 35 34 33 33 35 34 31 31 31 32 32 32 30 31 32 32 31 31 32 33 33
30 32 31 28 28 29 30 31 33 33 32 32 34 34 33 34 36 36 35 35 35 35 35 34 33 33 33 33 33 33 33 31 32 31 32 31 31 31 32 32 32 32 32
27 28 28 29 29 30 29 30 32 33 32 32 32 32 34 33 31 30 31 32 31 32 32 31 32 31 29 29 30 32 32 32 32 33 33 33 33 32 32 31 31 31 32
27 28 28 28 28 29 29 31 32 34 34 31 31 30 31 32 32 30 27 28 29 29 29 30 30 29 29 29 29 29 29 30 32 32 30 28 29 29 29 29 29 29 28

GFSMW_sfc_temp_093.txt.gz
Temp
87 90 90 91 91 91 90 88 85 79 72 69 67 68 67 67 68 67 68 68 68 67 67 66 65 65 62 63 64 63 62 63 76 70 67 67 70 75 77 78 77 77 76
85 87 89 89 88 88 87 85 85 83 73 70 73 77 73 73 71 69 67 67 66 66 65 66 64 63 62 62 62 62 61 62 70 69 68 61 61 68 75 77 76 76 77
81 84 86 87 87 86 85 85 85 84 74 75 78 77 73 69 66 67 67 67 67 66 65 65 63 62 62 62 62 63 62 63 67 70 69 62 59 63 70 73 76 75 75
80 82 84 85 86 87 85 85 85 83 73 78 80 75 68 65 68 68 68 64 65 65 65 63 63 62 62 61 62 64 63 67 66 69 75 74 74 64 59 67 73 75 74
78 80 83 85 87 88 85 83 84 83 77 79 81 76 74 76 74 70 68 66 63 64 63 63 62 61 61 62 62 63 66 68 68 70 70 72 74 72 68 63 67 73 75
78 81 83 85 86 89 84 81 81 81 79 79 79 77 75 76 74 70 67 64 62 62 61 62 62 62 62 62 62 64 66 68 70 73 72 71 68 71 71 70 69 69 72
76 78 80 83 85 85 80 78 78 79 79 77 77 77 75 75 72 71 67 62 60 60 61 61 61 61 62 62 63 63 67 69 70 71 69 73 73 75 75 74 69 68 72
74 77 79 80 82 81 74 72 78 79 78 76 76 76 76 72 74 69 65 62 58 59 61 61 61 61 62 62 63 65 68 68 68 67 68 68 72 72 74 74 72 65 69
69 74 77 79 79 75 66 65 76 78 76 75 75 74 72 71 70 67 63 60 59 58 58 59 60 61 61 62 62 64 64 66 66 66 68 67 69 72 75 74 74 69 63
64 63 73 78 79 71 64 63 72 74 74 73 73 71 69 71 70 65 60 59 58 58 58 58 58 59 60 61 61 63 64 66 66 66 65 65 70 70 70 72 70 68 66
57 55 63 75 77 72 65 63 68 72 71 72 69 68 68 68 67 67 61 59 58 58 58 58 58 58 58 59 60 63 62 63 62 60 60 61 64 67 69 64 63 67 64
54 52 52 62 67 65 64 62 67 68 68 70 67 67 68 67 66 65 61 60 58 58 58 57 57 56 56 57 58 58 58 57 57 58 61 62 65 65 63 65 63 64 64
52 48 49 49 58 60 60 61 63 64 67 66 65 67 67 65 64 64 63 60 59 58 58 58 57 57 56 56 57 56 56 57 58 61 64 66 65 65 65 63 60 59 59
47 44 44 46 48 54 59 60 61 64 66 66 65 66 68 67 67 68 66 62 63 60 60 60 60 59 58 58 57 56 56 57 59 62 65 68 65 65 65 61 59 58 57
44 41 41 42 44 45 48 59 61 62 64 63 65 65 68 68 68 67 67 68 66 64 63 63 62 61 60 59 57 58 57 57 59 62 66 66 62 54 58 62 62 61 59
42 39 39 39 40 41 43 47 52 59 68 64 62 65 68 65 65 66 65 64 65 66 65 65 65 63 49 38 40 51 59 59 61 59 62 67 54 54 47 47 47 50 56
39 37 36 37 37 38 40 41 46 50 50 49 50 52 54 54 54 59 58 57 59 60 56 55 49 44 42 37 39 39 56 58 54 52 51 56 49 44 50 46 39 37 36
33 34 34 35 36 37 37 40 42 43 43 43 44 46 48 47 47 48 46 44 43 43 43 42 43 41 39 37 38 38 52 43 40 39 41 41 41 38 40 45 38 34 34
32 32 33 33 33 35 35 37 37 38 38 38 39 40 42 41 41 39 39 39 38 36 36 36 37 37 36 37 38 44 43 38 35 35 35 36 35 35 38 40 34 32 31
31 31 32 32 32 33 35 33 34 35 34 35 37 38 38 37 36 36 35 35 35 34 34 33 33 34 34 36 37 38 36 32 31 32 32 33 33 34 37 36 33 30 29
30 30 30 29 30 32 34 31 31 31 32 35 35 37 37 36 36 35 35 34 33 33 32 31 31 31 32 34 36 35 34 32 31 30 30 31 33 33 33 33 31 30 31
30 30 29 29 30 32 32 31 30 32 32 33 34 34 35 37 38 38 34 34 34 33 32 32 31 31 31 33 34 34 34 34 32 30 31 32 33 33 33 33 33 33 33
31 31 29 28 29 30 32 30 31 32 32 31 31 32 33 32 32 34 35 34 37 35 34 33 32 32 34 33 32 32 32 32 32 32 32 33 33 33 32 32 32 33 33
29 30 29 27 27 29 29 31 32 33 32 31 30 29 29 29 31 32 32 30 32 32 32 33 32 32 31 32 33 33 33 32 33 33 33 32 32 32 32 33 33 33 33
28 29 28 27 27 29 29 30 32 33 32 31 31 31 31 29 27 27 29 29 29 30 30 29 29 29 27 28 31 32 32 32 32 33 33 33 33 32 32 32 32 32 33
30 29 29 28 29 29 29 30 31 31 30 29 30 31 32 31 28 26 24 28 28 29 29 29 30 29 29 30 31 31 32 33 33 32 30 29 30 30 30 30 30 30 29

GFSMW_sfc_temp_096.txt.gz
Temp
81 84 83 83 81 80 80 80 77 73 72 71 68 67 67 68 68 69 70 70 68 68 68 66 65 65 64 63 63 62 61 60 62 60 62 62 64 65 65 68 67 67 67
80 82 83 80 78 79 79 78 79 73 72 72 71 70 68 67 67 66 67 67 67 67 67 66 65 63 63 62 62 62 60 61 62 59 62 56 59 63 69 68 68 67 68
78 79 80 78 77 77 77 78 80 75 74 72 71 71 70 69 66 65 64 65 66 66 66 66 65 64 64 62 62 62 61 59 60 60 64 55 53 57 61 64 64 65 67
77 78 78 78 77 77 77 78 79 80 74 72 70 69 69 65 66 65 66 65 66 66 65 65 64 63 63 62 62 62 62 61 59 60 68 64 63 57 52 59 63 64 65
75 75 77 78 81 78 75 76 78 80 73 72 72 71 69 68 67 66 65 65 65 65 64 64 64 62 62 62 62 61 61 61 60 61 63 62 63 63 58 54 56 62 64
74 76 78 78 79 78 76 75 77 78 73 72 72 73 68 69 68 66 64 63 63 63 63 63 63 62 62 62 62 62 62 61 61 64 65 65 61 60 61 57 58 59 62
69 70 74 77 78 76 75 75 76 77 73 71 73 73 71 70 70 66 64 63 61 61 62 62 61 61 62 62 62 62 62 62 61 63 65 67 64 65 66 62 61 61 62
66 65 64 72 76 76 74 74 75 76 75 73 73 72 69 70 69 66 65 62 61 61 62 61 62 62 61 62 62 61 61 62 61 63 64 63 64 65 66 64 60 56 57
62 60 62 65 76 71 69 70 73 75 75 72 68 69 69 69 67 65 64 62 61 61 60 61 61 61 61 61 61 61 61 61 62 62 63 62 63 64 64 64 64 60 56
58 55 58 58 66 68 66 67 69 71 71 68 67 67 66 67 65 64 62 60 59 59 58 58 60 60 60 61 61 61 61 61 61 62 62 61 62 62 62 63 62 61 58
54 51 52 55 56 66 64 64 66 66 66 67 66 64 65 65 65 64 61 59 58 58 57 57 57 59 60 60 60 60 61 60 60 60 60 60 61 60 61 61 61 60 57
52 49 47 49 49 52 64 63 64 62 64 65 65 64 63 64 64 62 60 58 58 58 58 58 57 57 58 60 60 59 60 60 59 58 58 58 59 58 59 60 60 58 59
49 46 44 44 45 46 51 62 60 61 63 64 63 63 62 63 63 62 60 58 58 58 58 57 56 55 55 55 57 57 56 56 56 57 57 57 58 58 59 59 58 58 59
47 43 41 41 42 43 45 47 58 61 62 63 63 62 62 62 62 62 60 59 58 57 57 57 56 56 55 55 55 54 54 55 55 55 56 57 58 59 59 58 58 57 56
42 40 38 39 39 40 41 44 48 59 61 61 62 62 63 63 64 63 61 61 60 59 59 58 58 57 56 56 55 55 55 54 55 56 57 60 59 54 57 61 58 56 55
36 37 37 37 37 37 38 41 42 47 60 58 59 61 63 64 63 62 63 61 60 60 60 59 59 56 45 39 41 52 55 55 55 55 57 59 52 51 47 44 38 43 53
33 33 34 34 35 35 36 37 39 43 47 49 50 51 53 52 51 52 51 49 51 49 47 46 44 41 41 37 39 43 55 55 52 51 52 51 46 45 48 37 36 36 36
31 31 33 33 34 35 35 36 37 39 40 41 43 45 46 45 44 44 42 41 41 41 40 40 40 39 38 37 39 41 44 40 38 39 40 41 40 37 44 38 35 33 33
30 30 32 32 33 33 34 35 34 35 36 37 37 39 41 40 39 37 37 37 36 35 34 35 35 35 35 37 38 41 38 35 33 34 35 35 35 36 41 36 33 31 30
30 30 30 31 32 32 33 32 32 32 33 34 36 37 37 37 35 35 34 35 34 33 32 32 33 34 33 35 36 37 35 32 32 33 33 34 34 36 37 34 33 30 30
30 30 29 28 29 32 32 31 30 29 32 34 34 34 36 35 35 35 35 34 33 33 31 30 30 31 33 34 35 35 33 32 31 30 31 32 33 33 33 33 32 30 31
29 29 28 28 29 30 32 30 29 31 31 31 31 32 32 33 34 34 34 35 34 33 32 31 30 30 31 33 33 33 33 32 30 29 30 31 33 33 33 33 33 33 33
28 29 27 27 28 29 30 30 30 32 31 29 28 27 29 30 30 29 30 32 33 32 31 30 29 28 31 31 32 32 31 32 30 31 32 33 33 33 32 33 33 33 32
28 28 28 26 26 28 29 30 31 32 31 29 28 26 26 26 27 28 27 27 29 28 29 29 27 27 28 30 31 32 32 32 32 31 31 31 31 32 31 31 31 31 31
28 28 27 27 26 28 29 29 31 31 30 30 30 28 27 25 25 26 26 26 27 28 26 26 27 25 25 28 32 32 31 31 31 32 31 30 30 29 28 26 26 26 26
29 29 28 27 27 28 28 29 32 31 30 29 29 29 30 27 25 24 23 28 28 28 29 30 28 28 30 32 33 33 34 33 33 29 27 26 27 26 25 24 22 22 22

GFSMW_sfc_temp_099.txt.gz
Temp
72 74 73 74 76 77 79 70 71 71 71 69 66 66 66 68 68 68 66 70 68 67 66 65 64 64 63 63 63 62 61 60 62 60 59 59 61 65 66 64 63 63 63
69 72 75 71 71 71 71 68 73 70 71 70 70 67 67 67 67 66 67 69 67 67 66 65 64 64 63 63 62 62 60 61 61 59 58 54 57 60 65 64 64 62 64
67 70 73 73 69 70 71 70 71 70 70 69 68 65 64 65 64 64 65 65 67 67 66 65 64 64 64 62 62 62 61 59 60 60 58 54 54 58 60 61 62 61 62
67 68 69 67 67 69 70 71 70 69 69 68 67 65 64 63 65 66 66 64 65 65 65 65 64 64 63 62 62 62 61 61 59 60 62 62 63 57 54 60 62 63 62
64 63 64 69 70 69 68 71 70 69 69 68 67 66 64 65 66 64 63 64 64 64 64 64 64 63 63 63 62 62 61 61 61 60 60 60 61 59 60 53 55 58 63
61 62 63 63 64 68 66 67 69 70 68 67 66 66 65 63 63 62 62 62 62 63 63 64 64 64 63 62 62 62 61 61 61 61 61 61 61 59 59 56 56 57 58
58 57 58 58 59 60 65 66 69 68 67 66 66 66 65 64 62 61 61 60 61 61 61 62 62 62 63 63 62 62 62 61 60 60 60 62 63 66 61 58 59 56 55
55 53 54 55 56 61 64 67 65 66 66 66 65 65 66 67 67 63 61 61 62 62 63 62 62 63 62 62 62 62 62 61 61 61 61 61 61 66 65 61 59 54 55
51 50 51 52 52 59 59 59 63 64 65 64 64 64 66 66 64 63 62 60 58 60 61 62 62 61 61 62 62 61 61 61 61 61 61 60 63 62 63 61 63 61 55
47 47 48 49 50 51 57 58 60 61 64 64 65 65 64 64 63 62 59 58 57 59 58 60 61 61 61 61 61 60 61 61 61 61 60 61 61 60 61 59 59 60 57
44 45 45 47 47 48 49 54 59 59 60 65 64 63 62 62 62 61 59 58 58 57 57 58 58 59 60 60 60 60 60 59 60 61 60 60 59 59 58 58 58 57 56
43 43 43 43 44 44 46 48 52 60 60 62 63 61 61 62 61 59 57 58 57 57 57 57 57 58 59 60 60 59 59 59 59 59 59 59 59 58 58 58 58 57 57
41 40 40 40 40 41 43 44 46 48 60 61 61 60 61 61 60 59 58 58 57 57 57 57 56 56 57 59 59 60 59 60 59 59 59 59 59 57 57 57 58 58 58
38 37 36 37 38 39 40 42 43 46 51 60 60 59 59 60 60 60 58 58 58 57 57 57 56 56 55 56 58 58 58 58 58 57 58 58 57 56 57 57 57 56 56
35 35 34 34 35 36 38 40 41 43 46 58 60 59 60 61 60 59 58 58 58 58 58 57 56 55 55 53 55 56 56 56 55 55 56 56 54 50 53 58 56 56 56
32 32 33 34 33 34 35 38 39 40 43 47 53 58 59 61 60 59 59 58 58 57 57 57 56 48 45 39 42 51 54 54 54 53 55 56 50 49 43 40 39 46 55
30 30 31 32 33 33 35 35 37 39 39 40 43 48 49 49 49 50 48 48 46 45 44 43 43 41 41 38 40 42 54 54 53 52 53 53 46 46 42 37 37 35 36
29 29 30 31 32 33 34 36 37 36 36 36 37 40 42 42 42 42 40 39 39 38 38 38 38 38 38 38 39 39 41 38 37 37 39 41 40 40 41 37 34 33 34
29 28 30 30 31 32 33 33 34 34 34 33 35 36 37 37 36 35 35 36 35 34 34 35 35 35 35 37 37 38 36 34 33 34 35 36 37 38 39 35 32 31 31
28 28 28 30 30 32 33 30 29 30 30 32 32 34 36 35 34 34 33 33 33 32 32 32 33 34 34 36 36 36 35 32 32 32 33 34 35 35 35 34 32 30 30
27 28 27 26 28 30 32 29 29 27 28 30 32 32 32 34 35 35 34 34 32 32 31 30 31 32 33 34 35 35 33 32 31 31 31 32 34 35 35 34 32 31 32
27 27 26 26 27 29 31 29 29 29 28 28 28 28 29 30 32 32 33 34 33 31 30 30 30 30 32 33 34 34 33 33 31 30 31 32 34 34 33 33 32 32 32
26 27 26 25 28 29 29 28 29 30 28 27 26 26 26 27 28 28 30 30 30 29 28 28 28 29 31 31 32 32 32 32 31 31 31 32 32 32 31 32 32 32 31
25 26 26 24 24 26 28 28 30 30 30 27 26 25 25 25 26 26 27 27 26 26 27 26 26 27 29 30 31 32 31 31 30 30 29 29 28 28 27 27 28 28 28
25 26 24 24 24 26 26 28 29 30 29 29 28 26 25 24 24 25 26 26 27 27 26 26 27 26 27 30 32 31 30 30 30 30 29 28 27 24 24 23 24 25 25
26 25 25 25 24 25 25 28 30 30 28 27 28 28 27 25 24 23 23 28 28 29 30 30 28 28 31 32 32 32 32 32 31 27 24 22 22 22 22 21 21 22 22

GFSMW_sfc_temp_102.txt.gz
Temp
66 67 69 70 71 71 73 71 69 70 70 68 67 66 66 66 65 66 67 67 65 65 65 64 64 65 64 63 63 63 61 61 62 61 59 60 59 61 61 63 63 63 62
63 66 67 67 66 70 70 68 70 69 70 69 69 69 69 66 66 66 67 68 67 67 66 65 64 64 63 63 62 62 61 61 62 59 58 55 56 57 60 62 62 61 62
64 66 67 65 63 63 66 67 72 70 70 71 69 64 65 63 62 65 66 67 67 66 66 65 65 64 64 62 62 62 61 59 61 60 58 53 52 55 58 59 61 61 60
69 63 60 58 58 61 62 68 73 70 71 70 68 66 66 64 66 66 66 66 66 66 65 65 64 64 64 63 62 63 62 61 59 59 60 59 60 55 52 58 59 60 60
56 55 55 56 58 58 59 64 71 70 71 68 68 66 65 66 63 63 64 64 64 65 64 65 64 64 64 63 63 62 61 62 61 60 59 58 59 63 58 53 54 58 61
52 53 55 56 55 58 60 61 67 68 68 68 68 66 64 63 62 63 63 63 63 63 64 64 64 64 64 63 63 63 62 61 61 61 61 59 59 59 59 56 57 56 58
48 48 49 50 52 52 57 60 66 67 67 67 66 65 64 63 63 62 62 62 62 62 62 63 62 63 63 63 63 62 62 61 61 61 61 62 62 65 63 60 58 56 53
46 46 48 49 49 50 51 57 62 66 65 64 64 64 64 63 63 62 61 61 62 61 63 63 63 63 63 63 63 62 62 62 61 61 61 61 61 65 65 62 59 52 53
43 44 46 46 46 47 48 50 59 61 63 63 63 62 62 63 63 61 62 62 61 61 62 62 61 62 62 62 62 61 61 61 61 61 61 61 60 62 61 63 63 60 53
41 42 43 43 45 45 46 49 51 54 60 61 62 63 62 61 61 61 61 60 59 60 60 61 61 61 61 62 62 61 61 61 61 61 60 60 60 59 59 59 60 60 59
38 39 40 41 42 44 44 46 48 49 53 59 59 60 60 61 60 60 59 58 58 57 58 59 59 60 60 61 60 60 61 60 60 61 60 60 61 59 58 59 58 59 56
36 36 38 39 39 40 42 44 46 45 48 56 58 59 61 61 60 59 58 58 56 57 58 56 57 58 58 60 59 59 60 60 59 59 59 59 59 59 57 57 57 57 57
35 34 35 36 37 38 39 41 43 43 46 50 58 59 60 60 59 58 58 57 57 57 57 57 57 57 57 58 59 60 59 59 59 60 60 60 59 58 57 57 56 57 56
33 33 33 34 35 36 37 38 40 42 44 49 59 59 59 59 59 59 58 57 57 57 57 57 56 56 55 56 58 59 59 59 59 59 60 60 60 59 57 56 56 56 55
31 31 31 32 33 34 35 37 39 40 43 44 47 52 59 59 59 58 58 57 58 57 57 57 56 55 53 49 50 58 58 58 58 58 58 59 57 51 54 57 56 56 55
30 30 31 32 32 33 33 36 37 38 40 40 41 44 49 58 58 58 58 56 54 55 54 54 53 48 46 38 40 50 56 57 56 56 57 55 49 48 45 43 40 48 55
28 28 29 30 31 32 33 33 35 38 37 37 38 39 41 44 46 47 45 44 43 43 41 42 42 41 40 38 40 42 51 47 49 52 53 50 47 45 41 37 37 35 36
26 27 28 29 31 32 32 33 33 34 35 35 35 36 37 38 39 39 38 37 37 36 36 36 37 38 38 37 38 38 40 38 38 39 41 45 43 42 41 37 34 33 33
26 27 28 28 30 31 32 32 30 31 30 31 32 33 35 35 35 34 34 34 34 33 33 34 34 35 35 36 37 38 36 35 34 35 37 38 38 38 39 35 32 31 31
26 26 27 28 28 30 32 29 28 27 27 28 30 32 33 33 33 33 32 33 33 32 32 32 33 34 33 35 36 36 35 32 32 33 34 35 35 35 36 35 33 31 30
25 26 26 26 27 29 31 27 27 25 27 28 28 28 29 31 32 33 33 32 32 31 31 30 31 32 33 33 35 35 33 32 31 31 32 33 34 34 34 34 33 31 32
25 25 24 24 25 28 29 28 27 28 27 27 26 26 27 28 29 30 31 31 31 30 30 30 30 31 32 33 34 34 33 33 31 30 31 32 34 34 33 32 32 32 31
23 24 23 23 25 26 27 26 28 29 28 27 25 25 26 27 27 27 27 27 28 28 28 29 29 29 31 31 32 32 32 31 29 29 29 30 30 30 29 30 30 30 30
23 24 23 22 22 24 26 27 27 30 29 27 25 25 24 24 26 27 27 27 26 26 26 27 28 29 29 30 31 31 31 30 29 28 26 26 26 25 25 25 26 25 25
22 22 21 21 21 23 23 26 27 28 27 28 27 25 25 24 24 25 26 26 28 28 26 27 28 28 28 30 31 30 29 29 28 27 26 24 23 22 22 23 24 25 25
22 21 22 21 21 22 22 24 27 28 26 26 27 27 27 25 24 23 23 28 29 29 30 30 30 29 31 31 31 30 30 29 28 24 22 21 21 20 20 20 20 21 21

GFSMW_sfc_temp_105.txt.gz
Temp
65 65 65 63 62 64 66 68 70 70 69 68 67 66 66 66 66 67 67 66 67 66 65 65 64 64 63 63 63 62 61 60 61 60 60 61 62 62 62 63 62 62 62
58 63 64 62 62 62 62 64 69 69 68 70 70 69 67 66 67 67 66 67 66 65 66 65 64 64 63 63 63 62 61 61 61 59 58 55 56 59 61 61 61 61 62
57 61 63 59 58 58 57 61 67 70 69 71 70 64 63 63 64 64 65 66 66 66 65 65 65 64 64 63 63 63 62 60 61 62 58 54 52 55 58 58 60 60 61
50 52 52 53 52 53 54 57 65 68 69 70 68 66 66 65 67 66 66 67 67 66 66 65 65 64 64 63 63 63 62 61 59 60 61 58 57 54 52 57 58 59 60
50 49 50 51 51 53 54 55 59 68 70 69 69 67 66 67 64 65 65 65 65 65 66 65 64 64 64 63 63 62 62 62 61 60 59 59 57 57 55 52 54 56 59
47 49 50 52 52 52 52 56 60 67 69 68 68 66 66 64 63 64 64 64 64 64 65 65 65 64 64 63 63 63 62 62 61 61 61 60 57 56 56 54 55 55 57
43 44 45 46 48 49 50 54 61 64 67 67 68 67 66 64 63 64 65 63 63 63 63 64 63 63 64 63 63 63 62 62 61 61 61 62 61 63 62 60 56 55 54
40 41 43 44 45 46 47 49 52 55 67 67 67 67 64 63 63 63 64 63 63 64 64 63 63 64 63 63 63 63 62 62 61 61 61 61 61 61 62 59 57 51 52
36 36 40 42 43 43 44 47 49 51 54 66 66 65 62 61 61 61 62 62 62 60 62 63 62 62 62 62 62 61 61 61 61 61 61 61 61 61 61 63 62 58 52
33 35 37 39 41 42 43 44 47 48 51 58 63 62 61 61 60 60 59 59 59 60 60 60 61 61 61 62 62 62 62 61 61 61 60 61 60 60 61 59 61 60 58
32 35 36 38 39 41 41 43 45 46 47 50 57 60 60 59 59 59 58 59 59 59 60 60 60 60 60 61 61 61 61 60 60 61 60 60 61 59 59 59 58 59 56
34 35 35 36 37 37 39 41 43 44 46 48 52 59 59 59 59 58 58 58 58 58 58 58 58 58 58 59 60 60 61 60 60 60 60 60 60 59 59 58 58 58 58
33 33 33 33 34 35 37 38 40 42 45 47 52 58 58 58 58 58 58 58 57 57 56 57 56 56 57 57 58 58 59 59 59 60 59 59 59 58 58 58 57 58 57
31 31 31 32 33 34 35 36 38 40 42 44 45 47 55 58 58 58 58 57 58 55 56 57 56 56 55 55 56 57 58 59 60 60 60 60 59 59 58 57 57 57 56
29 29 29 31 32 32 33 34 36 38 40 41 41 42 48 57 58 57 57 57 56 57 57 56 56 55 53 48 44 49 57 58 58 58 59 59 58 52 56 58 57 56 55
27 28 29 30 31 31 31 33 33 35 37 36 38 40 42 44 45 52 56 53 51 51 50 49 49 47 46 38 39 43 53 56 58 57 58 59 51 49 46 47 47 53 55
26 26 27 28 30 30 31 30 32 34 34 34 36 37 38 38 38 40 41 42 42 41 40 41 41 40 38 37 39 41 47 46 44 47 54 51 47 44 42 38 37 36 36
25 26 27 28 29 31 31 31 32 31 31 31 32 34 36 35 35 35 35 35 36 36 36 36 37 37 37 36 38 38 40 38 38 38 40 45 44 43 42 38 35 34 34
25 25 27 27 29 30 30 30 28 29 29 29 29 30 33 34 33 32 32 32 33 33 33 34 34 34 34 36 36 37 37 35 34 35 37 38 38 38 40 37 33 32 32
25 25 25 27 27 28 31 27 25 25 25 27 28 29 30 31 31 31 31 32 32 31 32 32 33 34 33 35 36 36 34 32 33 33 33 34 35 35 36 35 34 32 31
24 24 25 24 25 28 29 28 26 24 25 26 27 28 29 29 29 30 31 31 31 31 31 31 31 32 33 33 35 34 33 32 31 31 32 32 34 34 34 34 33 31 32
22 22 21 22 24 26 27 25 26 27 26 25 25 25 27 28 28 28 28 29 29 29 30 30 30 31 31 33 33 33 32 32 30 29 30 31 33 33 32 32 32 31 30
20 21 20 20 22 24 25 24 25 28 26 25 23 24 25 27 27 27 27 27 28 28 28 29 29 29 30 31 32 32 31 30 28 28 29 30 30 29 29 29 29 29 28
18 20 20 19 19 21 23 24 25 25 27 26 24 24 24 24 26 27 27 27 27 27 27 27 27 28 29 29 29 29 28 28 27 26 26 26 26 25 25 25 25 25 25
18 19 19 19 19 21 21 22 25 26 25 26 26 25 25 23 23 24 25 26 27 28 27 27 27 26 26 28 30 28 26 25 25 25 24 23 22 22 22 22 22 23 23
20 19 20 20 20 20 20 22 25 26 25 25 25 24 24 23 23 23 23 27 27 28 29 29 29 28 29 30 30 29 28 27 26 22 20 19 19 19 19 19 19 20 20

GFSMW_sfc_temp_108.txt.gz
Temp
63 62 61 60 59 58 60 62 63 68 67 67 66 66 66 66 66 67 67 68 68 67 67 65 64 64 63 63 63 63 61 60 61 60 59 60 61 62 62 63 63 62 62
48 53 56 57 55 58 57 59 61 65 68 70 70 69 68 67 68 67 67 67 68 67 67 65 64 64 63 63 63 63 61 61 61 58 58 55 57 60 62 62 62 62 62
46 48 50 50 50 50 51 55 58 64 68 70 70 67 66 65 64 65 66 66 67 67 67 66 65 64 64 63 63 63 62 60 60 62 58 54 53 55 58 61 62 61 60
47 48 48 50 50 50 50 52 55 59 67 68 68 68 66 65 67 67 67 67 66 66 67 66 65 64 64 63 63 63 63 62 59 60 61 59 58 54 52 57 59 61 60
45 46 47 48 50 52 50 50 52 55 65 67 69 67 66 68 67 66 66 66 66 66 66 66 65 64 64 64 63 63 63 62 62 61 59 60 57 57 54 52 55 57 59
43 44 46 47 46 48 49 49 54 57 62 66 68 66 66 65 63 65 64 65 65 65 65 65 65 65 64 64 63 63 63 62 62 62 61 60 58 56 56 54 55 56 56
39 39 39 40 43 44 46 48 51 54 61 64 66 66 66 65 64 65 65 64 64 64 64 64 64 64 64 64 64 63 63 62 61 61 61 62 61 62 60 58 55 54 55
37 37 36 39 40 42 43 45 48 50 53 63 67 66 64 63 63 64 65 65 64 64 64 64 65 65 64 64 63 63 63 63 62 62 61 61 62 63 62 60 56 53 53
34 35 36 36 38 40 42 43 45 47 50 53 63 64 64 63 62 63 64 65 63 62 62 63 64 64 63 63 62 62 62 62 62 62 61 61 62 62 62 63 61 58 52
32 32 34 34 36 38 40 43 44 45 48 50 53 63 62 62 61 61 61 62 62 61 62 62 62 62 62 62 62 61 62 61 61 61 61 61 61 61 60 59 60 59 57
30 30 32 34 33 37 38 40 42 43 45 48 51 59 61 61 61 61 61 61 60 60 60 61 60 60 60 60 60 61 61 60 61 61 61 61 61 60 59 59 58 58 56
29 30 30 33 33 35 37 37 41 42 43 47 51 59 59 60 60 59 59 59 59 59 59 59 59 59 59 59 60 60 60 60 60 61 60 60 60 60 59 58 57 57 57
29 30 31 32 32 33 34 36 37 39 43 45 46 49 52 59 58 58 58 58 58 58 58 58 57 57 57 57 57 57 57 58 59 60 60 60 60 59 58 57 58 59 59
29 29 29 30 32 32 33 34 35 37 39 42 43 43 45 52 58 58 58 58 58 57 56 57 56 56 56 55 54 54 54 56 58 59 60 61 60 60 59 58 58 58 57
27 27 27 28 30 30 31 32 33 35 37 39 38 39 41 43 46 53 56 56 56 56 57 56 56 54 51 45 44 48 50 53 55 58 59 60 59 54 57 59 58 58 56
26 27 27 28 29 29 29 31 32 33 34 35 36 37 38 38 39 40 42 43 43 45 47 47 47 44 45 37 39 40 51 51 48 52 57 59 52 50 47 47 49 55 57
25 25 25 27 28 28 28 28 30 32 32 31 32 34 34 33 36 37 36 36 36 37 37 38 40 38 38 37 39 38 46 44 42 43 45 50 50 50 48 40 39 38 39
24 24 25 26 27 30 29 29 30 30 30 30 30 31 32 32 34 34 33 34 34 33 34 34 35 36 36 36 37 37 40 38 37 37 40 42 41 39 43 40 36 34 34
23 23 25 26 27 28 29 28 27 27 27 27 28 30 31 30 31 32 32 32 32 32 32 32 33 33 34 36 36 37 37 35 34 35 36 37 37 37 40 37 34 33 32
23 22 23 25 25 26 28 27 25 25 24 25 27 29 30 30 29 30 31 32 32 31 32 31 32 32 32 34 36 35 34 32 32 33 33 34 35 35 36 36 36 33 32
21 22 22 22 23 25 27 25 26 23 24 25 27 27 28 29 30 30 30 31 31 31 31 30 31 31 31 32 33 33 32 31 30 30 30 32 34 34 34 34 33 32 32
19 19 19 20 22 24 25 24 23 27 25 25 24 25 27 27 28 29 29 30 30 30 29 29 29 30 30 31 32 31 31 31 28 28 29 30 32 32 32 31 31 31 31
16 18 16 18 20 22 23 23 23 26 27 25 23 23 23 24 27 26 27 28 29 28 28 28 27 28 29 29 30 30 29 28 27 27 28 28 29 29 28 29 29 28 28
16 18 18 17 17 19 20 22 25 26 26 25 24 23 23 22 24 25 26 26 26 25 25 26 26 26 27 28 28 27 26 26 26 25 25 25 25 24 24 25 25 25 25
16 18 17 17 17 18 18 20 23 24 25 24 22 21 21 20 20 23 24 24 26 27 25 24 25 25 24 27 29 28 26 24 24 24 23 22 22 21 21 21 21 22 23
18 17 18 18 18 18 18 20 23 24 22 21 21 19 19 18 18 17 17 26 27 28 28 29 27 25 28 28 28 28 27 26 25 22 19 18 19 18 19 18 18 19 19

GFSMW_sfc_temp_111.txt.gz
Temp
67 68 63 62 62 64 65 68 69 69 73 73 69 68 66 69 71 72 72 72 71 70 69 70 67 67 66 65 64 65 64 64 65 64 63 64 66 66 65 66 65 65 64
63 59 58 57 57 58 59 61 63 66 70 76 75 74 72 70 71 69 69 70 70 70 68 69 67 66 66 65 64 64 62 63 64 62 62 59 63 65 67 66 65 65 64
50 52 54 54 55 56 56 58 60 62 64 71 76 75 73 71 66 66 67 68 69 70 68 68 67 66 66 65 65 64 64 61 62 65 64 58 57 60 64 63 63 63 63
46 48 49 50 52 54 55 56 57 59 62 65 73 72 72 69 70 70 70 68 68 69 69 68 67 66 66 66 65 65 65 65 61 62 63 69 68 61 57 61 61 63 61
41 42 43 45 47 49 49 51 54 57 61 64 69 73 72 74 75 72 70 68 67 68 69 68 67 66 66 66 65 64 65 65 64 63 62 64 63 63 60 59 58 59 62
39 40 42 43 43 46 46 47 49 53 59 63 66 71 72 72 73 71 68 67 67 66 66 67 66 66 66 66 65 65 65 64 64 64 65 63 61 58 59 58 58 60 59
37 36 37 38 40 41 42 44 47 48 53 57 65 71 72 72 72 71 71 68 66 65 65 66 65 66 66 66 66 65 64 64 63 64 64 65 65 64 63 61 60 56 58
36 34 36 37 36 38 40 41 45 45 49 52 58 70 69 69 71 72 72 70 69 67 67 66 66 66 65 66 66 66 64 64 63 64 64 64 64 64 63 63 61 54 55
34 32 34 35 36 36 37 40 42 45 47 49 52 65 68 67 68 70 71 70 70 67 66 67 65 65 65 65 66 65 63 63 63 63 63 63 64 63 65 65 65 61 53
31 31 31 32 35 36 36 39 42 43 45 47 51 54 67 66 66 68 69 70 69 67 65 65 65 64 64 65 64 64 64 63 63 63 62 62 63 63 63 64 63 64 58
29 29 30 31 32 33 34 36 38 41 43 45 48 54 62 64 65 65 68 69 66 65 65 66 67 64 62 63 63 63 62 61 62 62 63 62 63 62 63 63 65 60 59
29 29 29 30 31 31 32 34 35 37 41 45 47 49 53 61 61 61 61 62 62 64 65 64 62 61 61 62 61 60 61 61 62 63 63 62 62 61 63 61 60 61 60
29 29 28 29 29 31 32 32 34 35 38 43 44 45 46 51 59 59 59 60 60 60 60 61 61 60 60 59 59 60 59 60 60 61 61 63 64 61 60 60 59 59 59
27 28 28 29 31 31 30 29 33 34 36 40 40 42 42 45 48 56 57 58 58 58 58 59 58 58 56 54 54 56 56 57 58 60 61 60 60 60 60 60 60 59 57
26 26 26 27 29 29 30 31 31 33 33 36 37 38 40 41 43 43 45 47 46 46 48 52 50 49 45 42 42 49 53 55 57 57 58 60 60 54 56 60 59 59 57
25 26 27 27 28 29 28 29 30 31 33 33 34 36 38 38 37 38 39 40 40 40 40 40 40 39 41 37 38 40 48 53 52 51 53 56 51 50 46 46 48 55 57
24 25 25 27 27 28 29 27 28 30 31 30 31 32 34 34 33 36 36 35 34 36 34 36 36 35 36 36 37 37 45 44 42 43 44 47 50 44 47 40 40 41 43
24 25 26 26 27 30 30 31 31 29 28 29 30 30 31 32 32 33 32 32 33 32 33 33 34 33 34 35 36 37 39 37 36 37 38 40 41 41 42 39 36 34 34
24 23 25 26 27 29 30 31 29 29 28 27 28 30 30 30 31 31 32 32 32 32 32 33 32 31 32 34 35 36 36 34 33 34 35 36 37 36 39 36 34 33 32
23 22 24 25 25 26 29 27 27 27 25 26 27 29 31 30 30 31 31 32 32 31 32 31 31 32 31 33 33 33 33 31 31 32 33 33 34 35 35 38 36 33 32
21 21 22 22 23 25 27 25 26 25 26 27 27 27 29 29 30 31 32 32 32 32 31 30 31 30 30 31 32 32 29 28 28 28 28 30 32 33 33 33 32 31 32
20 20 19 20 22 23 25 24 24 27 27 27 26 26 27 28 29 30 31 31 31 31 31 31 31 32 31 31 31 30 29 29 27 25 27 28 30 30 30 30 31 31 31
20 21 19 19 20 21 23 22 24 26 25 25 24 24 26 27 28 28 28 29 29 29 28 29 28 29 32 32 30 30 29 28 27 27 27 28 28 27 26 28 28 28 28
20 22 21 19 18 20 21 22 24 24 24 23 23 24 23 24 26 28 28 28 27 27 27 26 27 28 29 30 31 31 29 29 28 27 26 26 26 25 24 24 25 25 25
20 21 21 20 20 22 22 23 25 25 25 24 23 23 24 23 24 24 26 26 26 26 26 26 26 26 26 27 29 28 28 28 26 28 27 25 25 23 23 22 22 23 24
23 23 23 22 23 24 23 25 27 27 25 24 24 23 24 24 24 24 24 25 25 26 26 27 27 27 27 28 28 28 27 26 27 26 24 22 22 21 20 20 20 21 22

GFSMW_sfc_temp_114.txt.gz
Temp
69 69 69 70 70 70 70 71 71 72 75 78 78 79 77 79 81 83 83 83 82 80 79 79 77 70 69 70 71 70 70 71 74 70 69 73 72 73 77 78 77 76 75
61 61 62 64 64 64 66 66 67 69 71 76 79 81 81 80 80 83 83 82 80 80 79 78 74 70 69 68 69 68 66 67 69 65 67 62 67 72 74 75 74 72 71
55 56 57 58 59 60 61 62 64 66 67 69 74 79 81 81 79 78 77 80 80 79 78 76 72 69 70 66 67 69 67 64 65 72 72 65 65 71 74 72 73 71 67
55 55 54 54 54 55 57 58 60 62 64 67 69 71 78 77 79 77 76 78 78 77 77 74 72 70 69 67 67 69 69 67 63 65 73 76 76 66 64 71 70 70 68
53 52 52 52 54 55 54 54 56 57 60 63 65 69 71 81 82 80 77 76 73 72 72 72 72 69 70 68 67 67 68 68 68 65 66 71 73 72 64 65 69 68 71
51 51 52 51 52 54 52 51 51 53 54 55 60 64 68 74 80 80 77 77 72 68 69 69 70 70 69 68 67 68 68 68 68 67 73 71 69 67 65 63 67 69 71
46 45 46 46 47 46 46 45 45 45 48 50 54 58 65 71 77 79 79 76 69 67 67 68 68 68 69 69 67 66 67 67 66 69 71 75 73 73 72 68 67 66 69
42 41 41 42 43 42 42 43 41 41 44 47 50 54 63 73 78 80 81 79 71 70 69 68 68 68 69 68 68 66 66 66 66 69 70 73 72 75 74 70 68 59 61
39 38 39 40 41 37 39 38 37 39 42 45 48 51 61 71 77 78 78 77 73 70 69 68 67 67 68 67 67 65 65 65 66 68 69 70 72 74 72 71 70 64 58
35 35 35 35 38 35 36 37 35 37 40 43 47 50 56 63 76 71 70 72 74 74 72 69 68 66 66 66 65 65 65 65 65 67 65 66 68 68 69 67 66 64 63
32 31 31 33 34 34 33 33 34 35 38 43 47 49 54 69 74 69 69 73 72 72 70 70 67 65 65 65 65 65 65 64 66 65 64 64 66 64 63 63 64 64 62
33 31 30 30 31 31 31 31 32 34 38 42 45 46 48 52 66 67 69 69 69 69 68 67 64 64 64 65 64 63 63 64 63 63 62 62 64 64 68 67 63 64 64
34 32 30 28 29 30 30 29 32 33 37 40 43 44 44 46 49 58 61 62 61 62 62 62 62 63 63 63 62 61 62 62 62 62 63 66 68 67 66 64 63 63 62
31 31 30 28 29 30 29 28 31 33 35 38 38 40 41 42 44 46 48 49 53 57 55 53 48 47 46 47 51 55 57 59 60 62 65 67 66 65 64 63 61 61 60
30 29 28 28 29 29 29 30 30 31 32 35 35 37 39 40 40 41 42 44 44 45 46 43 42 42 41 40 43 50 55 56 60 63 65 64 55 47 48 54 61 63 59
28 29 29 29 29 30 30 30 29 30 32 31 32 35 35 36 37 36 38 38 39 38 38 38 38 38 40 38 38 43 51 51 49 48 49 52 51 50 43 42 41 45 57
27 27 28 28 30 30 31 31 31 31 30 30 30 31 32 32 33 34 33 33 34 35 35 35 35 35 36 36 38 39 42 40 39 38 39 43 47 45 48 46 41 38 36
27 28 29 29 29 33 33 36 36 34 30 29 30 31 31 31 32 32 32 32 32 31 33 32 32 33 34 35 36 36 37 36 35 35 35 37 39 39 40 45 42 37 36
26 26 28 28 29 31 32 34 33 34 31 30 29 31 31 31 31 31 31 31 31 31 31 31 31 31 32 34 34 35 35 33 32 33 33 34 35 35 37 41 38 35 34
26 25 26 28 26 28 32 29 29 29 28 29 29 32 33 32 31 31 32 32 32 32 31 30 31 31 30 32 32 32 32 30 30 30 31 32 32 33 34 35 36 33 32
25 26 25 23 24 27 29 27 26 25 27 29 30 30 31 31 32 33 32 32 32 32 32 32 32 31 31 31 31 31 29 28 29 27 27 29 31 32 32 32 31 30 32
25 25 23 22 24 26 26 25 23 26 28 28 28 29 29 30 31 31 32 31 32 32 32 33 34 35 33 33 32 32 30 30 27 26 27 28 30 31 30 29 30 30 30
26 27 24 23 24 26 26 24 25 27 27 27 27 28 29 29 30 29 29 30 31 30 30 31 31 32 33 32 32 32 31 30 31 30 29 29 29 28 28 29 28 28 27
26 28 28 25 23 26 27 27 27 29 28 27 28 29 28 29 29 30 30 27 27 27 26 27 27 29 30 29 30 31 32 31 32 31 32 31 30 30 28 27 27 28 27
27 28 27 27 26 28 28 29 29 30 30 29 29 29 30 29 29 27 26 27 26 26 26 26 27 25 26 27 28 28 28 29 30 32 32 31 31 30 30 30 29 30 29
31 31 30 30 30 30 29 32 32 31 30 30 30 29 30 30 30 30 29 27 26 25 25 26 26 27 26 27 27 27 27 29 30 31 28 27 27 27 28 28 28 28 28

GFSMW_sfc_temp_117.txt.gz
Temp
73 72 71 71 71 71 70 71 71 73 74 77 78 81 81 83 83 82 84 83 84 83 80 82 81 77 74 74 75 77 75 73 75 72 74 72 74 74 77 81 81 75 76
67 67 67 67 66 66 66 67 67 69 71 74 76 79 82 85 85 85 83 84 84 83 82 81 83 78 75 70 71 72 72 75 76 71 68 63 67 74 77 79 80 77 78
62 63 63 63 63 62 63 63 64 65 67 68 71 74 77 78 82 81 81 83 83 83 81 81 82 81 76 73 70 69 69 67 71 75 71 66 67 74 75 74 75 74 71
60 60 60 60 60 60 62 62 61 61 63 65 65 67 70 74 82 82 81 81 81 82 82 81 81 80 76 73 71 71 69 68 65 68 74 76 79 73 69 72 74 76 72
57 56 56 56 58 59 58 58 57 58 60 61 61 62 65 71 76 78 80 79 80 80 81 80 79 77 75 74 72 69 68 69 68 66 70 73 76 75 72 67 68 74 74
54 54 54 53 53 55 54 53 53 55 57 57 57 56 58 63 69 73 77 76 77 78 78 78 76 74 73 73 73 70 69 68 68 68 71 71 70 72 69 67 69 67 71
50 49 48 47 47 47 48 48 48 49 51 52 53 53 54 58 63 67 72 76 75 75 75 74 71 73 73 72 72 68 68 68 67 67 67 75 75 76 74 71 70 70 74
46 44 42 42 42 42 43 42 42 44 47 47 48 49 51 54 61 67 72 71 79 78 76 74 71 70 73 71 70 69 68 67 67 67 68 73 75 75 75 70 70 65 69
40 40 40 39 38 38 38 39 38 40 42 41 42 44 48 51 55 65 72 76 77 80 76 74 69 69 69 70 68 67 66 67 67 67 68 71 73 74 74 74 70 69 63
37 37 36 36 36 36 37 38 36 37 38 39 41 44 46 51 55 64 71 75 78 79 74 72 68 67 67 67 67 66 67 66 66 67 67 67 71 72 72 73 72 70 67
35 34 33 34 33 35 34 35 34 35 36 38 40 42 47 50 54 64 71 75 76 76 75 72 67 67 66 66 66 66 65 65 65 66 65 67 70 68 65 65 68 68 66
37 35 33 32 31 31 32 31 32 33 34 36 39 44 45 47 50 58 71 74 73 74 74 73 71 69 65 65 64 64 64 64 64 64 64 64 66 67 66 64 63 63 64
36 36 33 32 31 32 31 31 31 31 32 36 38 41 41 43 43 45 49 51 65 66 61 63 58 59 61 62 63 63 64 64 64 64 62 65 64 62 62 65 66 66 65
33 33 32 32 33 32 31 31 31 31 32 34 36 38 38 39 40 42 42 45 46 46 46 44 44 44 44 46 51 59 60 60 60 61 61 62 62 61 58 62 62 65 64
31 31 31 31 33 33 33 33 31 31 31 32 33 35 37 38 38 38 38 39 40 40 42 44 43 42 41 42 43 53 56 56 57 54 55 52 48 43 45 52 54 53 54
28 29 31 32 31 32 33 34 32 31 32 32 31 33 34 35 36 35 35 36 36 36 36 38 38 39 40 40 40 46 48 47 45 44 45 49 47 46 43 42 41 41 46
28 29 30 30 31 33 35 35 34 33 31 31 31 32 32 32 32 33 33 32 32 34 33 33 34 33 35 37 37 38 39 38 36 36 39 42 43 41 44 45 42 39 36
28 28 29 30 31 35 35 37 38 36 32 32 31 32 32 32 32 32 32 31 31 31 31 31 32 31 33 34 34 34 34 33 33 33 34 35 36 36 37 43 44 39 38
28 27 29 31 31 32 34 34 34 34 32 30 31 32 32 31 31 31 31 32 32 31 31 31 31 30 31 33 33 33 32 31 30 31 32 33 33 34 36 40 38 34 33
27 26 27 29 27 28 32 28 28 29 28 30 31 33 34 32 32 32 32 32 32 32 32 31 32 32 31 32 32 31 30 28 29 31 31 32 32 33 33 32 33 32 31
26 27 26 25 26 27 29 26 26 25 29 30 32 31 32 31 32 32 33 33 33 33 33 32 31 31 31 32 33 32 30 29 28 27 27 28 31 31 32 31 30 29 31
28 27 25 25 27 28 27 26 25 28 29 30 30 31 30 31 31 29 31 31 31 31 31 32 32 32 32 32 32 33 32 32 30 29 30 30 31 30 30 29 30 30 30
29 30 26 26 27 29 28 26 27 30 29 30 29 30 31 29 30 29 26 27 29 29 29 29 30 31 31 31 31 32 32 32 32 32 32 33 33 33 32 31 30 30 29
30 32 31 28 26 29 30 30 30 31 31 30 31 31 30 31 29 30 29 25 24 25 25 26 24 27 28 28 29 30 31 31 32 33 33 33 32 33 33 32 32 32 31
32 32 31 31 30 31 31 31 32 32 32 32 31 32 33 31 32 27 27 27 25 25 24 24 26 22 22 25 28 29 29 31 31 33 32 31 31 30 31 31 31 31 31
36 36 35 34 34 33 32 34 34 34 32 32 33 32 33 33 33 32 31 29 28 27 26 26 25 25 26 26 28 30 30 30 32 31 28 27 27 27 27 27 27 28 28

GFSMW_sfc_temp_120.txt.gz
Temp
70 69 67 66 65 65 64 64 63 64 65 66 66 68 69 74 76 78 78 77 77 75 74 75 74 73 73 72 73 72 69 69 69 68 67 68 67 68 68 71 70 72 71
65 65 65 64 62 62 61 61 63 62 62 64 65 65 65 68 70 76 77 78 76 76 75 74 74 73 72 72 70 72 69 69 69 66 65 61 63 66 69 70 70 71 71
59 59 60 59 58 57 58 59 60 60 60 60 62 64 66 67 68 70 74 77 77 76 76 74 74 75 73 71 71 70 70 67 68 69 64 60 58 62 67 68 70 67 66
58 57 56 55 54 55 55 56 56 56 58 58 57 57 58 59 63 66 71 76 77 77 77 75 75 75 74 72 70 71 71 68 66 67 71 68 66 61 58 65 68 67 66
54 53 52 52 52 52 50 50 51 52 52 54 55 54 54 57 61 63 65 68 72 75 76 74 74 74 73 72 70 69 69 70 69 68 67 67 68 65 61 57 60 65 67
50 50 50 49 48 48 46 46 46 47 48 49 50 51 51 52 53 56 59 63 66 71 74 75 73 74 72 71 70 68 68 68 69 69 69 67 65 65 64 59 59 60 63
46 45 43 42 42 42 42 43 43 42 44 45 46 47 48 49 50 52 55 59 62 65 71 72 72 73 72 72 70 68 68 68 68 68 66 69 68 69 66 62 60 60 62
42 41 40 40 39 39 39 39 39 38 40 41 43 44 45 46 48 50 53 57 61 65 69 71 72 73 72 72 70 70 68 68 67 67 67 67 68 68 69 66 63 57 59
39 38 39 38 37 37 37 37 36 36 37 38 39 41 43 44 46 48 52 54 58 65 67 69 70 71 70 70 70 68 67 67 67 66 67 67 67 68 68 64 63 60 55
37 37 36 35 36 36 36 36 36 34 34 36 38 39 42 44 46 48 49 52 55 61 67 66 69 68 68 67 66 67 66 66 65 66 66 66 67 67 66 65 64 64 60
35 34 33 34 35 35 34 34 34 33 33 35 38 39 43 45 47 49 51 52 55 59 65 66 63 61 65 66 66 66 65 65 65 65 65 65 66 66 64 63 63 63 61
34 33 32 32 32 32 33 33 32 32 32 34 38 39 41 42 43 44 47 53 57 61 65 67 66 64 66 66 66 65 64 64 63 64 64 64 65 64 65 62 60 60 60
32 32 31 31 31 32 32 32 32 32 32 33 35 37 38 38 38 40 42 44 45 46 47 47 49 50 52 63 64 65 64 63 63 64 63 64 64 63 62 61 60 60 61
29 30 30 30 31 32 32 32 32 32 32 32 33 34 35 36 37 39 38 39 41 39 42 45 44 45 45 47 50 63 62 62 62 62 59 56 56 56 56 57 56 57 56
28 28 29 29 31 32 32 33 32 32 32 32 32 32 33 35 36 36 37 37 36 35 37 38 40 41 42 44 47 48 48 50 49 50 50 45 45 43 44 51 49 50 51
27 28 29 30 30 32 31 33 32 31 32 31 31 32 32 33 34 34 34 34 34 34 36 35 35 35 38 39 41 40 39 39 39 39 43 44 40 41 42 41 38 41 44
27 27 29 29 30 32 32 33 34 33 31 31 31 31 32 32 32 33 33 32 32 33 33 33 34 34 34 34 36 38 37 37 35 34 35 37 38 36 40 41 38 37 36
27 26 27 28 29 32 31 34 34 32 32 31 31 31 31 30 31 32 32 32 32 31 31 30 31 32 32 34 33 33 32 31 31 32 32 33 33 34 37 42 38 35 34
26 25 27 28 27 29 30 30 30 30 30 30 30 31 30 30 30 30 31 31 32 31 30 30 29 30 31 33 33 32 30 29 28 30 31 31 31 33 34 35 34 32 31
26 25 25 27 25 26 29 26 26 27 27 28 29 30 31 28 28 29 29 32 32 31 31 29 29 30 29 32 33 32 31 29 29 29 30 31 31 32 32 30 29 28 29
25 26 24 23 25 26 26 25 25 25 28 29 30 28 29 29 27 27 28 29 29 29 29 29 29 28 29 30 33 33 30 30 29 29 29 30 32 32 32 31 28 27 29
26 25 23 23 25 26 25 24 24 27 28 29 29 29 27 27 27 24 25 26 26 27 25 25 26 26 27 30 31 33 33 32 30 29 30 31 33 33 32 31 31 31 29
27 28 22 22 24 26 26 24 25 26 27 28 28 28 28 27 26 23 22 22 23 22 23 23 21 22 24 26 30 31 32 32 31 32 32 33 34 33 31 32 32 31 30
30 32 29 23 22 25 27 27 28 29 27 28 28 29 28 25 25 26 23 21 20 20 20 20 19 20 21 23 26 27 27 30 30 31 30 30 30 30 30 30 29 29 29
31 32 30 29 28 29 28 28 29 30 30 29 28 29 30 29 26 24 24 23 23 24 20 20 20 19 19 22 28 29 27 28 29 29 28 26 26 25 25 26 27 27 27
36 34 33 31 31 30 29 31 31 31 30 29 30 29 29 29 29 28 27 31 29 28 28 27 25 23 27 28 29 30 31 31 30 25 23 22 22 23 23 23 23 24 24

GFSMW_sfc_temp_123.txt.gz
Temp
58 58 57 55 55 55 55 56 56 57 57 57 56 56 56 60 60 61 66 70 73 74 71 72 67 68 70 69 68 69 67 66 67 64 62 63 65 65 66 66 67 69 69
53 55 53 52 51 51 51 51 51 52 53 54 55 56 56 58 60 63 63 65 69 72 72 69 71 70 70 68 68 69 67 67 67 64 62 59 61 64 66 65 67 69 66
48 49 49 47 47 46 46 47 47 48 49 51 52 53 55 55 55 58 60 63 67 71 71 72 71 71 69 69 70 69 69 66 66 66 62 57 56 59 62 65 66 66 66
47 47 45 44 43 43 44 44 45 44 47 48 46 45 46 48 52 53 57 58 61 65 69 73 72 72 71 69 69 70 69 67 65 66 69 62 61 57 55 61 66 65 64
43 42 42 41 42 42 41 41 42 43 44 43 44 42 43 48 50 51 51 54 57 61 65 67 71 70 69 70 69 70 67 68 68 67 67 65 60 61 58 55 58 61 64
40 39 40 40 39 39 39 38 39 40 41 41 41 40 40 44 46 48 47 49 52 56 61 64 66 71 70 69 70 69 69 67 66 68 68 67 65 62 58 56 58 61 60
37 36 37 36 36 35 36 37 38 38 39 38 38 39 41 42 43 44 46 47 48 51 56 61 63 66 70 70 70 67 67 65 64 65 67 68 68 69 66 60 58 57 59
37 35 35 34 34 35 35 36 36 36 37 36 36 38 40 41 42 44 45 46 48 50 53 56 60 65 67 69 70 68 65 62 62 65 67 67 68 67 66 65 60 55 57
33 33 33 33 33 34 34 35 35 35 36 35 36 37 39 40 41 43 45 46 48 51 51 54 57 61 65 67 68 68 67 65 64 65 65 66 67 68 67 63 61 60 54
31 31 31 31 33 33 35 35 35 34 34 35 36 38 40 42 44 45 45 46 48 50 50 51 53 58 63 66 65 67 68 67 64 64 64 65 67 66 66 63 62 60 59
29 29 30 31 32 33 33 34 33 33 33 34 35 37 39 41 42 43 45 46 48 49 51 52 53 57 61 62 60 62 65 65 64 64 64 65 66 65 64 64 62 60 59
28 28 29 30 31 31 32 32 32 32 32 34 35 35 37 39 40 39 41 43 44 49 52 54 54 58 56 57 57 58 62 58 63 63 64 64 65 64 64 62 62 62 60
29 30 30 29 29 31 31 32 31 31 32 33 33 34 35 35 36 37 38 39 40 41 43 44 43 44 45 47 50 57 60 63 64 64 63 64 64 63 63 60 59 58 59
28 28 28 28 29 30 30 31 30 31 32 32 32 32 33 34 34 36 36 36 37 37 37 38 39 39 39 42 46 53 61 63 62 58 56 52 53 58 60 60 59 57 57
26 26 26 26 27 28 29 31 30 30 31 31 30 31 32 34 34 34 34 35 35 35 36 35 35 37 37 37 39 43 44 44 45 45 42 41 42 42 43 51 51 53 52
26 26 27 27 27 28 27 29 30 29 30 29 28 30 31 32 32 33 32 32 32 32 32 33 33 33 33 35 35 35 34 37 38 38 37 39 39 41 39 38 38 37 46
25 25 25 25 25 26 28 27 28 30 29 28 29 28 29 29 30 32 32 30 30 30 30 30 31 31 32 33 33 34 32 32 33 33 34 35 37 39 42 38 37 35 35
24 24 24 25 25 27 27 28 29 29 28 27 27 28 26 27 28 29 29 30 29 28 28 28 29 31 32 33 33 33 31 31 31 31 31 32 32 34 38 37 34 32 33
23 23 24 25 25 25 27 26 27 28 28 27 26 28 26 25 25 26 27 27 28 27 26 26 27 27 30 34 33 32 31 30 30 31 32 31 31 33 33 32 31 30 29
22 21 22 25 24 24 26 22 23 25 25 26 26 27 27 25 23 24 24 26 25 25 25 24 25 28 26 32 33 32 31 30 30 31 31 32 32 32 32 29 28 26 26
20 21 20 19 19 21 21 21 20 22 22 25 27 26 26 25 24 24 24 24 25 24 23 23 23 24 27 28 32 33 30 30 29 29 30 31 33 33 33 32 30 28 28
20 18 16 17 20 20 19 20 21 20 21 21 22 24 24 24 23 22 22 22 22 21 21 21 22 23 25 30 31 32 32 32 28 27 29 30 32 32 32 30 31 31 30
20 19 16 14 18 20 21 22 22 20 21 23 21 19 22 22 22 20 20 21 20 19 19 19 19 20 23 25 30 31 31 30 28 28 30 31 30 30 28 30 29 28 27
22 23 20 17 18 17 21 21 24 24 20 22 21 22 18 20 19 20 21 20 19 19 19 18 19 20 21 23 26 26 26 27 27 26 26 26 28 26 26 26 26 25 25
22 23 23 23 21 23 20 21 24 25 25 22 23 22 25 21 18 21 20 21 23 23 20 19 20 20 19 23 28 28 25 25 25 23 23 22 22 21 21 22 23 24 24
28 27 25 24 23 23 23 25 27 26 24 25 25 23 24 23 24 22 22 29 28 28 28 28 25 22 28 28 27 28 28 27 26 20 17 16 17 17 18 18 19 21 21